| time (UTC) | temp F | wind direction | speed MPH | gust MPH | rain 1hr in | rain 24hr in | rain mn in | humidity % | barometer mb |
| 20260505000901 | 77 | 207 | 6.0 | 15.0 | 0.00 | 0.00 | 0.00 | 73 | 1008.7 |
| 20260505000759 | 77 | 154 | 5.0 | 15.0 | 0.00 | 0.00 | 0.00 | 73 | 1008.6 |
| 20260505000657 | 77 | 149 | 4.0 | 15.0 | 0.00 | 0.00 | 0.00 | 73 | 1008.7 |
| 20260505000557 | 77 | 164 | 4.0 | 17.0 | 0.00 | 0.00 | 0.00 | 73 | 1008.7 |
| 20260505000456 | 77 | 206 | 7.0 | 17.0 | 0.00 | 0.00 | 0.00 | 73 | 1008.6 |
| 20260505000353 | 77 | 168 | 7.0 | 17.0 | 0.00 | 0.00 | 0.00 | 72 | 1008.6 |
| 20260505000250 | 77 | 147 | 6.0 | 17.0 | 0.00 | 0.00 | 0.00 | 72 | 1008.6 |
| 20260505000145 | 77 | 152 | 8.0 | 17.0 | 0.00 | 0.00 | 0.00 | 72 | 1008.6 |
| 20260505000045 | 77 | 75 | 8.0 | 17.0 | 0.00 | 0.00 | 0.00 | 72 | 1008.6 |
| 20260504235946 | 77 | 166 | 7.0 | 17.0 | 0.00 | 0.00 | 0.00 | 72 | 1008.6 |
| 20260504235845 | 77 | 169 | 7.0 | 17.0 | 0.00 | 0.00 | 0.00 | 72 | 1008.6 |
| 20260504235744 | 77 | 80 | 7.0 | 17.0 | 0.00 | 0.00 | 0.00 | 72 | 1008.5 |
| 20260504235645 | 77 | 213 | 6.0 | 17.0 | 0.00 | 0.00 | 0.00 | 72 | 1008.6 |
| 20260504235545 | 77 | 133 | 6.0 | 16.0 | 0.00 | 0.00 | 0.00 | 72 | 1008.5 |
| 20260504235446 | 77 | 141 | 6.0 | 16.0 | 0.00 | 0.00 | 0.00 | 72 | 1008.5 |
| 20260504235344 | 77 | 120 | 5.0 | 16.0 | 0.00 | 0.00 | 0.00 | 72 | 1008.6 |
| 20260504235245 | 77 | 147 | 6.0 | 16.0 | 0.00 | 0.00 | 0.00 | 72 | 1008.5 |
| 20260504235144 | 77 | 125 | 7.0 | 16.0 | 0.00 | 0.00 | 0.00 | 72 | 1008.6 |
| 20260504235044 | 77 | 178 | 6.0 | 16.0 | 0.00 | 0.00 | 0.00 | 72 | 1008.6 |
| 20260504234944 | 77 | 96 | 5.0 | 16.0 | 0.00 | 0.00 | 0.00 | 72 | 1008.6 |
| 20260504234844 | 77 | 147 | 7.0 | 16.0 | 0.00 | 0.00 | 0.00 | 72 | 1008.6 |
| 20260504234746 | 77 | 179 | 8.0 | 16.0 | 0.00 | 0.00 | 0.00 | 72 | 1008.7 |
| 20260504234646 | 77 | 159 | 6.0 | 13.0 | 0.00 | 0.00 | 0.00 | 72 | 1008.6 |
| 20260504234545 | 77 | 165 | 6.0 | 13.0 | 0.00 | 0.00 | 0.00 | 72 | 1008.6 |
| 20260504234445 | 77 | 157 | 5.0 | 13.0 | 0.00 | 0.00 | 0.00 | 72 | 1008.8 |
| 20260504234345 | 77 | 127 | 4.0 | 13.0 | 0.00 | 0.00 | 0.00 | 72 | 1008.7 |
| 20260504234247 | 77 | 176 | 5.0 | 13.0 | 0.00 | 0.00 | 0.00 | 72 | 1008.7 |
| 20260504234145 | 77 | 196 | 5.0 | 13.0 | 0.00 | 0.00 | 0.00 | 72 | 1008.7 |
| 20260504234044 | 77 | 120 | 6.0 | 13.0 | 0.00 | 0.00 | 0.00 | 72 | 1008.7 |
| 20260504233944 | 77 | 171 | 6.0 | 13.0 | 0.00 | 0.00 | 0.00 | 72 | 1008.7 |
| 20260504233845 | 77 | 141 | 5.0 | 15.0 | 0.00 | 0.00 | 0.00 | 72 | 1008.7 |
| 20260504233744 | 77 | 55 | 5.0 | 15.0 | 0.00 | 0.00 | 0.00 | 72 | 1008.7 |
| 20260504233644 | 77 | 123 | 5.0 | 15.0 | 0.00 | 0.00 | 0.00 | 72 | 1008.7 |
| 20260504233545 | 77 | 85 | 5.0 | 15.0 | 0.00 | 0.00 | 0.00 | 72 | 1008.8 |
| 20260504233445 | 77 | 173 | 6.0 | 15.0 | 0.00 | 0.00 | 0.00 | 72 | 1008.8 |
| 20260504233344 | 77 | 172 | 6.0 | 15.0 | 0.00 | 0.00 | 0.00 | 72 | 1008.8 |
| 20260504233244 | 77 | 186 | 5.0 | 15.0 | 0.00 | 0.00 | 0.00 | 72 | 1008.8 |
| 20260504233146 | 77 | 121 | 6.0 | 17.0 | 0.00 | 0.00 | 0.00 | 72 | 1008.8 |
| 20260504233045 | 77 | 100 | 8.0 | 17.0 | 0.00 | 0.00 | 0.00 | 72 | 1008.8 |
| 20260504232944 | 77 | 123 | 6.0 | 17.0 | 0.00 | 0.00 | 0.00 | 72 | 1008.8 |
| 20260504232847 | 77 | 56 | 5.0 | 17.0 | 0.00 | 0.00 | 0.00 | 71 | 1008.8 |
| 20260504232744 | 77 | 89 | 8.0 | 17.0 | 0.00 | 0.00 | 0.00 | 71 | 1008.8 |
| 20260504232646 | 77 | 164 | 9.0 | 17.0 | 0.00 | 0.00 | 0.00 | 71 | 1008.8 |
| 20260504232545 | 77 | 144 | 8.0 | 17.0 | 0.00 | 0.00 | 0.00 | 71 | 1008.7 |
| 20260504232445 | 77 | 162 | 6.0 | 17.0 | 0.00 | 0.00 | 0.00 | 71 | 1008.7 |
| 20260504232344 | 77 | 130 | 8.0 | 17.0 | 0.00 | 0.00 | 0.00 | 71 | 1008.8 |
| 20260504232244 | 78 | 130 | 9.0 | 17.0 | 0.00 | 0.00 | 0.00 | 71 | 1008.9 |
| 20260504232144 | 78 | 71 | 8.0 | 15.0 | 0.00 | 0.00 | 0.00 | 71 | 1008.8 |
| 20260504232043 | 78 | 158 | 7.0 | 15.0 | 0.00 | 0.00 | 0.00 | 71 | 1008.9 |
| 20260504231942 | 78 | 85 | 6.0 | 14.0 | 0.00 | 0.00 | 0.00 | 71 | 1008.9 |
| 20260504231840 | 78 | 127 | 6.0 | 14.0 | 0.00 | 0.00 | 0.00 | 71 | 1008.9 |
| 20260504231740 | 78 | 97 | 4.0 | 14.0 | 0.00 | 0.00 | 0.00 | 71 | 1008.9 |
| 20260504231637 | 78 | 288 | 4.0 | 14.0 | 0.00 | 0.00 | 0.00 | 71 | 1008.9 |
| 20260504231535 | 78 | 116 | 5.0 | 14.0 | 0.00 | 0.00 | 0.00 | 70 | 1008.8 |
| 20260504231435 | 78 | 186 | 6.0 | 14.0 | 0.00 | 0.00 | 0.00 | 70 | 1008.8 |
| 20260504231333 | 78 | 125 | 8.0 | 14.0 | 0.00 | 0.00 | 0.00 | 70 | 1008.8 |
| 20260504231232 | 78 | 252 | 7.0 | 14.0 | 0.00 | 0.00 | 0.00 | 70 | 1008.8 |
| 20260504231132 | 78 | 159 | 6.0 | 13.0 | 0.00 | 0.00 | 0.00 | 70 | 1008.9 |
| 20260504231031 | 78 | 159 | 7.0 | 13.0 | 0.00 | 0.00 | 0.00 | 70 | 1008.9 |
| 20260504230932 | 78 | 203 | 6.0 | 14.0 | 0.00 | 0.00 | 0.00 | 70 | 1009.0 |
| 20260504230831 | 78 | 152 | 6.0 | 14.0 | 0.00 | 0.00 | 0.00 | 70 | 1009.1 |
| 20260504230731 | 78 | 166 | 6.0 | 14.0 | 0.00 | 0.00 | 0.00 | 70 | 1009.1 |
| 20260504230634 | 78 | 127 | 6.0 | 14.0 | 0.00 | 0.00 | 0.00 | 70 | 1009.0 |
| 20260504230531 | 78 | 178 | 7.0 | 14.0 | 0.00 | 0.00 | 0.00 | 70 | 1009.0 |
| 20260504230430 | 78 | 149 | 6.0 | 14.0 | 0.00 | 0.00 | 0.00 | 70 | 1009.1 |
| 20260504230331 | 78 | 289 | 7.0 | 14.0 | 0.00 | 0.00 | 0.00 | 70 | 1009.0 |
| 20260504230232 | 78 | 186 | 6.0 | 14.0 | 0.00 | 0.00 | 0.00 | 70 | 1009.0 |
| 20260504230133 | 78 | 169 | 6.0 | 14.0 | 0.00 | 0.00 | 0.00 | 70 | 1008.9 |
| 20260504230031 | 78 | 159 | 7.0 | 14.0 | 0.00 | 0.00 | 0.00 | 70 | 1009.0 |
| 20260504225932 | 78 | 154 | 7.0 | 14.0 | 0.00 | 0.00 | 0.00 | 69 | 1009.0 |
| 20260504225832 | 78 | 190 | 7.0 | 13.0 | 0.00 | 0.00 | 0.00 | 69 | 1008.8 |
| 20260504225731 | 78 | 203 | 6.0 | 14.0 | 0.00 | 0.00 | 0.00 | 69 | 1008.9 |
| 20260504225632 | 78 | 185 | 7.0 | 14.0 | 0.00 | 0.00 | 0.00 | 69 | 1008.9 |
| 20260504225532 | 78 | 155 | 6.0 | 14.0 | 0.00 | 0.00 | 0.00 | 69 | 1008.9 |
| 20260504225431 | 79 | 155 | 6.0 | 16.0 | 0.00 | 0.00 | 0.00 | 69 | 1008.8 |
| 20260504225331 | 79 | 93 | 7.0 | 16.0 | 0.00 | 0.00 | 0.00 | 69 | 1008.9 |
| 20260504225231 | 79 | 158 | 7.0 | 16.0 | 0.00 | 0.00 | 0.00 | 69 | 1008.9 |
| 20260504225131 | 79 | 165 | 7.0 | 16.0 | 0.00 | 0.00 | 0.00 | 69 | 1008.9 |
| 20260504225031 | 79 | 159 | 7.0 | 16.0 | 0.00 | 0.00 | 0.00 | 69 | 1009.0 |
| 20260504224932 | 79 | 96 | 7.0 | 16.0 | 0.00 | 0.00 | 0.00 | 68 | 1009.1 |
| 20260504224831 | 79 | 164 | 7.0 | 16.0 | 0.00 | 0.00 | 0.00 | 68 | 1009.1 |
| 20260504224732 | 79 | 158 | 8.0 | 16.0 | 0.00 | 0.00 | 0.00 | 68 | 1009.1 |
| 20260504224631 | 79 | 152 | 8.0 | 16.0 | 0.00 | 0.00 | 0.00 | 68 | 1009.1 |
| 20260504224532 | 79 | 69 | 6.0 | 16.0 | 0.00 | 0.00 | 0.00 | 68 | 1009.1 |
| 20260504224431 | 79 | 159 | 4.0 | 12.0 | 0.00 | 0.00 | 0.00 | 68 | 1009.1 |
| 20260504224331 | 79 | 155 | 4.0 | 18.0 | 0.00 | 0.00 | 0.00 | 69 | 1009.2 |
| 20260504224233 | 79 | 159 | 5.0 | 18.0 | 0.00 | 0.00 | 0.00 | 68 | 1009.1 |
| 20260504224132 | 79 | 107 | 7.0 | 18.0 | 0.00 | 0.00 | 0.00 | 68 | 1009.1 |
| 20260504224031 | 79 | 224 | 7.0 | 18.0 | 0.00 | 0.00 | 0.00 | 68 | 1009.2 |
| 20260504223932 | 79 | 113 | 3.0 | 18.0 | 0.00 | 0.00 | 0.00 | 68 | 1009.1 |
| 20260504223831 | 79 | 113 | 3.0 | 18.0 | 0.00 | 0.00 | 0.00 | 68 | 1009.1 |
| 20260504223731 | 79 | 82 | 3.0 | 18.0 | 0.00 | 0.00 | 0.00 | 68 | 1009.1 |
| 20260504223631 | 79 | 140 | 5.0 | 18.0 | 0.00 | 0.00 | 0.00 | 68 | 1009.1 |
| 20260504223533 | 79 | 120 | 8.0 | 18.0 | 0.00 | 0.00 | 0.00 | 67 | 1009.1 |
| 20260504223431 | 80 | 175 | 8.0 | 18.0 | 0.00 | 0.00 | 0.00 | 67 | 1009.1 |
| 20260504223329 | 80 | 190 | 7.0 | 16.0 | 0.00 | 0.00 | 0.00 | 67 | 1009.2 |
| 20260504223227 | 80 | 154 | 6.0 | 16.0 | 0.00 | 0.00 | 0.00 | 67 | 1009.2 |
| 20260504223127 | 80 | 130 | 6.0 | 16.0 | 0.00 | 0.00 | 0.00 | 67 | 1009.2 |
| 20260504223025 | 80 | 100 | 6.0 | 16.0 | 0.00 | 0.00 | 0.00 | 68 | 1009.2 |
| 20260504222924 | 80 | 209 | 6.0 | 16.0 | 0.00 | 0.00 | 0.00 | 67 | 1009.2 |
| 20260504222821 | 80 | 231 | 6.0 | 16.0 | 0.00 | 0.00 | 0.00 | 67 | 1009.3 |
| 20260504222720 | 80 | 172 | 7.0 | 16.0 | 0.00 | 0.00 | 0.00 | 67 | 1009.3 |
| 20260504222618 | 80 | 282 | 9.0 | 16.0 | 0.00 | 0.00 | 0.00 | 66 | 1009.2 |
| 20260504222518 | 80 | 175 | 8.0 | 15.0 | 0.00 | 0.00 | 0.00 | 66 | 1009.3 |
| 20260504222416 | 80 | 118 | 6.0 | 14.0 | 0.00 | 0.00 | 0.00 | 66 | 1009.2 |
| 20260504222314 | 80 | 238 | 5.0 | 13.0 | 0.00 | 0.00 | 0.00 | 67 | 1009.2 |
| 20260504222212 | 80 | 128 | 6.0 | 13.0 | 0.00 | 0.00 | 0.00 | 67 | 1009.3 |
| 20260504222111 | 80 | 172 | 6.0 | 13.0 | 0.00 | 0.00 | 0.00 | 66 | 1009.3 |
| 20260504222010 | 80 | 75 | 6.0 | 17.0 | 0.00 | 0.00 | 0.00 | 65 | 1009.4 |
| 20260504221907 | 80 | 162 | 5.0 | 17.0 | 0.00 | 0.00 | 0.00 | 65 | 1009.3 |
| 20260504221808 | 80 | 133 | 5.0 | 17.0 | 0.00 | 0.00 | 0.00 | 66 | 1009.4 |
| 20260504221705 | 80 | 182 | 7.0 | 17.0 | 0.00 | 0.00 | 0.00 | 65 | 1009.3 |
| 20260504221604 | 80 | 161 | 9.0 | 17.0 | 0.00 | 0.00 | 0.00 | 65 | 1009.3 |
| 20260504221504 | 80 | 154 | 6.0 | 17.0 | 0.00 | 0.00 | 0.00 | 65 | 1009.4 |
| 20260504221403 | 80 | 189 | 4.0 | 17.0 | 0.00 | 0.00 | 0.00 | 65 | 1009.4 |
| 20260504221303 | 80 | 276 | 6.0 | 17.0 | 0.00 | 0.00 | 0.00 | 65 | 1009.4 |
| 20260504221203 | 80 | 176 | 9.0 | 17.0 | 0.00 | 0.00 | 0.00 | 64 | 1009.4 |
| 20260504221103 | 80 | 204 | 10.0 | 17.0 | 0.00 | 0.00 | 0.00 | 64 | 1009.5 |
| 20260504221003 | 80 | 172 | 8.0 | 15.0 | 0.00 | 0.00 | 0.00 | 64 | 1009.5 |
| 20260504220903 | 80 | 164 | 8.0 | 13.0 | 0.00 | 0.00 | 0.00 | 64 | 1009.4 |
| 20260504220803 | 80 | 148 | 6.0 | 13.0 | 0.00 | 0.00 | 0.00 | 63 | 1009.4 |
| 20260504220702 | 80 | 151 | 4.0 | 11.0 | 0.00 | 0.00 | 0.00 | 64 | 1009.4 |
| 20260504220602 | 81 | 213 | 4.0 | 13.0 | 0.00 | 0.00 | 0.00 | 64 | 1009.4 |
| 20260504220504 | 80 | 142 | 4.0 | 14.0 | 0.00 | 0.00 | 0.00 | 64 | 1009.4 |
| 20260504220402 | 81 | 144 | 6.0 | 14.0 | 0.00 | 0.00 | 0.00 | 64 | 1009.4 |
| 20260504220302 | 81 | 145 | 6.0 | 14.0 | 0.00 | 0.00 | 0.00 | 63 | 1009.5 |
| 20260504220202 | 81 | 274 | 7.0 | 14.0 | 0.00 | 0.00 | 0.00 | 62 | 1009.5 |
| 20260504220003 | 81 | 274 | 7.0 | 14.0 | 0.00 | 0.00 | 0.00 | 62 | 1009.4 |
| 20260504215904 | 81 | 274 | 7.0 | 14.0 | 0.00 | 0.00 | 0.00 | 62 | 1009.4 |
| 20260504215802 | 81 | 200 | 7.0 | 14.0 | 0.00 | 0.00 | 0.00 | 62 | 1009.4 |
| 20260504215702 | 81 | 212 | 8.0 | 14.0 | 0.00 | 0.00 | 0.00 | 61 | 1009.4 |
| 20260504215602 | 81 | 202 | 8.0 | 14.0 | 0.00 | 0.00 | 0.00 | 61 | 1009.4 |
| 20260504215504 | 81 | 233 | 6.0 | 13.0 | 0.00 | 0.00 | 0.00 | 62 | 1009.4 |
| 20260504215403 | 81 | 114 | 5.0 | 13.0 | 0.00 | 0.00 | 0.00 | 62 | 1009.4 |
| 20260504215304 | 81 | 159 | 5.0 | 13.0 | 0.00 | 0.00 | 0.00 | 62 | 1009.4 |
| 20260504215204 | 81 | 147 | 6.0 | 13.0 | 0.00 | 0.00 | 0.00 | 61 | 1009.5 |
| 20260504215104 | 81 | 123 | 6.0 | 13.0 | 0.00 | 0.00 | 0.00 | 61 | 1009.5 |
| 20260504215003 | 81 | 158 | 6.0 | 13.0 | 0.00 | 0.00 | 0.00 | 61 | 1009.4 |
| 20260504214903 | 82 | 210 | 7.0 | 18.0 | 0.00 | 0.00 | 0.00 | 61 | 1009.5 |
| 20260504214803 | 82 | 196 | 7.0 | 18.0 | 0.00 | 0.00 | 0.00 | 60 | 1009.5 |
| 20260504214702 | 82 | 240 | 6.0 | 18.0 | 0.00 | 0.00 | 0.00 | 61 | 1009.5 |
| 20260504214602 | 82 | 202 | 4.0 | 18.0 | 0.00 | 0.00 | 0.00 | 61 | 1009.5 |
| 20260504214504 | 82 | 111 | 6.0 | 18.0 | 0.00 | 0.00 | 0.00 | 61 | 1009.5 |
| 20260504214403 | 82 | 141 | 6.0 | 18.0 | 0.00 | 0.00 | 0.00 | 60 | 1009.5 |
| 20260504214303 | 82 | 189 | 5.0 | 18.0 | 0.00 | 0.00 | 0.00 | 61 | 1009.4 |
| 20260504214204 | 82 | 180 | 6.0 | 18.0 | 0.00 | 0.00 | 0.00 | 61 | 1009.5 |
| 20260504214102 | 81 | 157 | 7.0 | 18.0 | 0.00 | 0.00 | 0.00 | 61 | 1009.5 |
| 20260504214003 | 81 | 137 | 7.0 | 18.0 | 0.00 | 0.00 | 0.00 | 61 | 1009.6 |
| 20260504213902 | 81 | 130 | 6.0 | 13.0 | 0.00 | 0.00 | 0.00 | 61 | 1009.6 |
| 20260504213803 | 81 | 85 | 6.0 | 14.0 | 0.00 | 0.00 | 0.00 | 61 | 1009.5 |
| 20260504213702 | 81 | 121 | 6.0 | 15.0 | 0.00 | 0.00 | 0.00 | 61 | 1009.5 |
| 20260504213602 | 82 | 111 | 7.0 | 15.0 | 0.00 | 0.00 | 0.00 | 60 | 1009.6 |
| 20260504213503 | 82 | 71 | 6.0 | 15.0 | 0.00 | 0.00 | 0.00 | 60 | 1009.6 |
| 20260504213403 | 82 | 86 | 5.0 | 15.0 | 0.00 | 0.00 | 0.00 | 60 | 1009.6 |
| 20260504213304 | 82 | 120 | 4.0 | 15.0 | 0.00 | 0.00 | 0.00 | 60 | 1009.7 |
| 20260504213202 | 82 | 116 | 5.0 | 15.0 | 0.00 | 0.00 | 0.00 | 60 | 1009.7 |
| 20260504213102 | 82 | 99 | 7.0 | 16.0 | 0.00 | 0.00 | 0.00 | 60 | 1009.6 |
| 20260504213002 | 82 | 93 | 7.0 | 16.0 | 0.00 | 0.00 | 0.00 | 60 | 1009.7 |
| 20260504212903 | 82 | 180 | 7.0 | 16.0 | 0.00 | 0.00 | 0.00 | 60 | 1009.7 |
| 20260504212802 | 82 | 137 | 6.0 | 16.0 | 0.00 | 0.00 | 0.00 | 60 | 1009.6 |
| 20260504212702 | 82 | 100 | 5.0 | 16.0 | 0.00 | 0.00 | 0.00 | 61 | 1009.6 |
| 20260504212603 | 82 | 133 | 6.0 | 16.0 | 0.00 | 0.00 | 0.00 | 60 | 1009.7 |
| 20260504212502 | 82 | 159 | 5.0 | 16.0 | 0.00 | 0.00 | 0.00 | 60 | 1009.7 |
| 20260504212403 | 82 | 130 | 6.0 | 16.0 | 0.00 | 0.00 | 0.00 | 59 | 1009.7 |
| 20260504212304 | 82 | 202 | 9.0 | 16.0 | 0.00 | 0.00 | 0.00 | 59 | 1009.7 |
| 20260504212202 | 82 | 157 | 9.0 | 16.0 | 0.00 | 0.00 | 0.00 | 58 | 1009.7 |
| 20260504212105 | 82 | 190 | 7.0 | 14.0 | 0.00 | 0.00 | 0.00 | 59 | 1009.7 |
| 20260504212004 | 82 | 265 | 5.0 | 12.0 | 0.00 | 0.00 | 0.00 | 58 | 1009.7 |
| 20260504211902 | 82 | 94 | 5.0 | 12.0 | 0.00 | 0.00 | 0.00 | 59 | 1009.7 |
| 20260504211803 | 82 | 130 | 5.0 | 12.0 | 0.00 | 0.00 | 0.00 | 60 | 1009.7 |
| 20260504211702 | 82 | 217 | 6.0 | 12.0 | 0.00 | 0.00 | 0.00 | 59 | 1009.8 |
| 20260504211602 | 82 | 107 | 6.0 | 13.0 | 0.00 | 0.00 | 0.00 | 58 | 1009.8 |
| 20260504211503 | 82 | 99 | 6.0 | 16.0 | 0.00 | 0.00 | 0.00 | 58 | 1009.9 |
| 20260504211402 | 83 | 96 | 6.0 | 16.0 | 0.00 | 0.00 | 0.00 | 57 | 1009.9 |
| 20260504211301 | 83 | 140 | 5.0 | 16.0 | 0.00 | 0.00 | 0.00 | 58 | 1009.9 |
| 20260504211200 | 83 | 140 | 6.0 | 16.0 | 0.00 | 0.00 | 0.00 | 57 | 1010.0 |
| 20260504211059 | 83 | 147 | 7.0 | 17.0 | 0.00 | 0.00 | 0.00 | 57 | 1009.9 |
| 20260504210956 | 83 | 96 | 6.0 | 17.0 | 0.00 | 0.00 | 0.00 | 57 | 1010.0 |
| 20260504210854 | 83 | 97 | 6.0 | 17.0 | 0.00 | 0.00 | 0.00 | 59 | 1009.9 |
| 20260504210754 | 83 | 171 | 8.0 | 17.0 | 0.00 | 0.00 | 0.00 | 58 | 1010.0 |
| 20260504210653 | 83 | 200 | 10.0 | 17.0 | 0.00 | 0.00 | 0.00 | 58 | 1010.0 |
| 20260504210550 | 82 | 199 | 9.0 | 17.0 | 0.00 | 0.00 | 0.00 | 58 | 1009.9 |
| 20260504210449 | 82 | 206 | 5.0 | 17.0 | 0.00 | 0.00 | 0.00 | 60 | 1010.0 |
| 20260504210349 | 82 | 173 | 5.0 | 17.0 | 0.00 | 0.00 | 0.00 | 59 | 1010.0 |
| 20260504210247 | 82 | 148 | 7.0 | 17.0 | 0.00 | 0.00 | 0.00 | 58 | 1010.0 |
| 20260504210145 | 82 | 197 | 8.0 | 17.0 | 0.00 | 0.00 | 0.00 | 58 | 1009.9 |
| 20260504210046 | 82 | 165 | 7.0 | 13.0 | 0.00 | 0.00 | 0.00 | 59 | 1010.0 |
| 20260504205940 | 82 | 185 | 7.0 | 13.0 | 0.00 | 0.00 | 0.00 | 58 | 1010.0 |
| 20260504205840 | 82 | 190 | 7.0 | 13.0 | 0.00 | 0.00 | 0.00 | 58 | 1010.0 |
| 20260504205741 | 82 | 183 | 6.0 | 13.0 | 0.00 | 0.00 | 0.00 | 58 | 1010.2 |
| 20260504205641 | 82 | 117 | 5.0 | 14.0 | 0.00 | 0.00 | 0.00 | 59 | 1010.2 |
| 20260504205541 | 82 | 96 | 5.0 | 14.0 | 0.00 | 0.00 | 0.00 | 58 | 1010.1 |
| 20260504205440 | 82 | 161 | 6.0 | 14.0 | 0.00 | 0.00 | 0.00 | 58 | 1010.2 |
| 20260504205341 | 83 | 179 | 7.0 | 14.0 | 0.00 | 0.00 | 0.00 | 57 | 1010.2 |
| 20260504205242 | 83 | 120 | 5.0 | 14.0 | 0.00 | 0.00 | 0.00 | 57 | 1010.2 |
| 20260504205142 | 83 | 264 | 4.0 | 14.0 | 0.00 | 0.00 | 0.00 | 59 | 1010.3 |
| 20260504205040 | 83 | 118 | 5.0 | 14.0 | 0.00 | 0.00 | 0.00 | 59 | 1010.3 |
| 20260504204940 | 83 | 168 | 7.0 | 14.0 | 0.00 | 0.00 | 0.00 | 58 | 1010.2 |
| 20260504204841 | 83 | 113 | 8.0 | 18.0 | 0.00 | 0.00 | 0.00 | 57 | 1010.3 |
| 20260504204740 | 83 | 118 | 7.0 | 18.0 | 0.00 | 0.00 | 0.00 | 57 | 1010.1 |
| 20260504204641 | 83 | 121 | 6.0 | 18.0 | 0.00 | 0.00 | 0.00 | 57 | 1010.2 |
| 20260504204541 | 83 | 123 | 6.0 | 18.0 | 0.00 | 0.00 | 0.00 | 56 | 1010.2 |
| 20260504204440 | 84 | 4 | 8.0 | 18.0 | 0.00 | 0.00 | 0.00 | 55 | 1010.2 |
| 20260504204334 | 84 | 168 | 8.0 | 18.0 | 0.00 | 0.00 | 0.00 | 55 | 1010.3 |
| 20260504204234 | 85 | 157 | 6.0 | 18.0 | 0.00 | 0.00 | 0.00 | 56 | 1010.2 |
| 20260504204131 | 85 | 107 | 6.0 | 18.0 | 0.00 | 0.00 | 0.00 | 56 | 1010.3 |
| 20260504204030 | 85 | 250 | 7.0 | 18.0 | 0.00 | 0.00 | 0.00 | 56 | 1010.3 |
| 20260504203932 | 85 | 123 | 6.0 | 18.0 | 0.00 | 0.00 | 0.00 | 56 | 1010.2 |
| 20260504203832 | 84 | 103 | 4.0 | 13.0 | 0.00 | 0.00 | 0.00 | 55 | 1010.2 |
| 20260504203730 | 84 | 178 | 5.0 | 13.0 | 0.00 | 0.00 | 0.00 | 57 | 1010.2 |
| 20260504203631 | 83 | 125 | 5.0 | 13.0 | 0.00 | 0.00 | 0.00 | 57 | 1010.2 |
| 20260504203532 | 83 | 152 | 5.0 | 13.0 | 0.00 | 0.00 | 0.00 | 58 | 1010.2 |
| 20260504203431 | 83 | 149 | 5.0 | 13.0 | 0.00 | 0.00 | 0.00 | 57 | 1010.2 |
| 20260504203331 | 82 | 182 | 5.0 | 13.0 | 0.00 | 0.00 | 0.00 | 56 | 1010.2 |
| 20260504203232 | 83 | 195 | 6.0 | 13.0 | 0.00 | 0.00 | 0.00 | 56 | 1010.3 |
| 20260504203115 | 83 | 164 | 6.0 | 15.0 | 0.00 | 0.00 | 0.00 | 56 | 1010.4 |
| 20260504203015 | 83 | 245 | 6.0 | 15.0 | 0.00 | 0.00 | 0.00 | 55 | 1010.4 |
| 20260504202913 | 83 | 161 | 5.0 | 15.0 | 0.00 | 0.00 | 0.00 | 55 | 1010.5 |
| 20260504202810 | 84 | 212 | 6.0 | 15.0 | 0.00 | 0.00 | 0.00 | 55 | 1010.5 |
| 20260504202709 | 84 | 157 | 7.0 | 15.0 | 0.00 | 0.00 | 0.00 | 54 | 1010.5 |
| 20260504202607 | 85 | 204 | 5.0 | 15.0 | 0.00 | 0.00 | 0.00 | 54 | 1010.5 |
| 20260504202502 | 85 | 178 | 4.0 | 15.0 | 0.00 | 0.00 | 0.00 | 54 | 1010.5 |
| 20260504202403 | 85 | 141 | 5.0 | 15.0 | 0.00 | 0.00 | 0.00 | 54 | 1010.5 |
| 20260504202304 | 85 | 196 | 7.0 | 15.0 | 0.00 | 0.00 | 0.00 | 54 | 1010.6 |
| 20260504202203 | 85 | 226 | 8.0 | 15.0 | 0.00 | 0.00 | 0.00 | 54 | 1010.5 |
| 20260504202102 | 85 | 196 | 5.0 | 11.0 | 0.00 | 0.00 | 0.00 | 53 | 1010.5 |
| 20260504202003 | 85 | 224 | 4.0 | 11.0 | 0.00 | 0.00 | 0.00 | 56 | 1010.6 |
| 20260504201902 | 84 | 226 | 3.0 | 11.0 | 0.00 | 0.00 | 0.00 | 57 | 1010.7 |
| 20260504201803 | 83 | 241 | 3.0 | 11.0 | 0.00 | 0.00 | 0.00 | 56 | 1010.6 |
| 20260504201701 | 83 | 133 | 4.0 | 14.0 | 0.00 | 0.00 | 0.00 | 56 | 1010.6 |
| 20260504201603 | 82 | 145 | 4.0 | 14.0 | 0.00 | 0.00 | 0.00 | 58 | 1010.6 |
| 20260504201502 | 82 | 102 | 6.0 | 16.0 | 0.00 | 0.00 | 0.00 | 57 | 1010.7 |
| 20260504201402 | 82 | 165 | 5.0 | 16.0 | 0.00 | 0.00 | 0.00 | 57 | 1010.8 |
| 20260504201304 | 82 | 189 | 4.0 | 16.0 | 0.00 | 0.00 | 0.00 | 57 | 1010.8 |
| 20260504201203 | 82 | 96 | 5.0 | 16.0 | 0.00 | 0.00 | 0.00 | 57 | 1010.8 |
| 20260504201102 | 82 | 190 | 6.0 | 16.0 | 0.00 | 0.00 | 0.00 | 56 | 1010.8 |
| 20260504201002 | 82 | 133 | 5.0 | 16.0 | 0.00 | 0.00 | 0.00 | 56 | 1010.8 |
| 20260504200903 | 83 | 162 | 7.0 | 16.0 | 0.00 | 0.00 | 0.00 | 56 | 1010.8 |
| 20260504200802 | 83 | 195 | 8.0 | 16.0 | 0.00 | 0.00 | 0.00 | 54 | 1010.9 |
| 20260504200702 | 84 | 161 | 8.0 | 16.0 | 0.00 | 0.00 | 0.00 | 54 | 1010.9 |
| 20260504200604 | 84 | 159 | 8.0 | 16.0 | 0.00 | 0.00 | 0.00 | 55 | 1010.8 |
| 20260504200504 | 84 | 141 | 6.0 | 15.0 | 0.00 | 0.00 | 0.00 | 56 | 1010.8 |
| 20260504200401 | 84 | 159 | 6.0 | 15.0 | 0.00 | 0.00 | 0.00 | 57 | 1010.9 |
| 20260504200301 | 83 | 175 | 6.0 | 16.0 | 0.00 | 0.00 | 0.00 | 56 | 1010.9 |
| 20260504200204 | 83 | 168 | 6.0 | 16.0 | 0.00 | 0.00 | 0.00 | 57 | 1011.0 |
| 20260504200103 | 83 | 71 | 8.0 | 16.0 | 0.00 | 0.00 | 0.00 | 56 | 1010.9 |
| 20260504200004 | 82 | 123 | 8.0 | 16.0 | 0.00 | 0.00 | 0.00 | 56 | 1011.0 |
| 20260504195903 | 82 | 117 | 6.0 | 16.0 | 0.00 | 0.00 | 0.00 | 56 | 1011.0 |
| 20260504195803 | 82 | 180 | 6.0 | 16.0 | 0.00 | 0.00 | 0.00 | 56 | 1011.0 |
| 20260504195702 | 83 | 133 | 6.0 | 16.0 | 0.00 | 0.00 | 0.00 | 55 | 1011.1 |
| 20260504195603 | 83 | 193 | 6.0 | 16.0 | 0.00 | 0.00 | 0.00 | 55 | 1011.2 |
| 20260504195503 | 83 | 165 | 8.0 | 16.0 | 0.00 | 0.00 | 0.00 | 55 | 1011.1 |
| 20260504195402 | 84 | 162 | 8.0 | 16.0 | 0.00 | 0.00 | 0.00 | 53 | 1011.2 |
| 20260504195304 | 84 | 203 | 6.0 | 13.0 | 0.00 | 0.00 | 0.00 | 53 | 1011.2 |
| 20260504195202 | 84 | 148 | 6.0 | 13.0 | 0.00 | 0.00 | 0.00 | 53 | 1011.1 |
| 20260504195102 | 84 | 154 | 5.0 | 15.0 | 0.00 | 0.00 | 0.00 | 53 | 1011.0 |
| 20260504195003 | 84 | 209 | 5.0 | 15.0 | 0.00 | 0.00 | 0.00 | 53 | 1011.0 |
| 20260504194902 | 84 | 233 | 6.0 | 15.0 | 0.00 | 0.00 | 0.00 | 54 | 1011.0 |
| 20260504194802 | 84 | 164 | 6.0 | 15.0 | 0.00 | 0.00 | 0.00 | 53 | 1011.1 |
| 20260504194702 | 84 | 151 | 7.0 | 15.0 | 0.00 | 0.00 | 0.00 | 54 | 1011.0 |
| 20260504194603 | 84 | 172 | 7.0 | 15.0 | 0.00 | 0.00 | 0.00 | 54 | 1011.0 |
| 20260504194504 | 84 | 157 | 8.0 | 15.0 | 0.00 | 0.00 | 0.00 | 55 | 1011.1 |
| 20260504194402 | 84 | 140 | 7.0 | 15.0 | 0.00 | 0.00 | 0.00 | 55 | 1011.1 |
| 20260504194304 | 84 | 162 | 6.0 | 15.0 | 0.00 | 0.00 | 0.00 | 55 | 1011.1 |
| 20260504194203 | 83 | 58 | 7.0 | 15.0 | 0.00 | 0.00 | 0.00 | 56 | 1011.2 |
| 20260504194102 | 83 | 159 | 7.0 | 14.0 | 0.00 | 0.00 | 0.00 | 56 | 1011.2 |
| 20260504194003 | 83 | 178 | 7.0 | 14.0 | 0.00 | 0.00 | 0.00 | 56 | 1011.2 |
| 20260504193901 | 83 | 111 | 6.0 | 14.0 | 0.00 | 0.00 | 0.00 | 56 | 1011.2 |
| 20260504193802 | 83 | 52 | 6.0 | 14.0 | 0.00 | 0.00 | 0.00 | 55 | 1011.3 |
| 20260504193702 | 83 | 154 | 6.0 | 14.0 | 0.00 | 0.00 | 0.00 | 56 | 1011.3 |
| 20260504193602 | 83 | 169 | 6.0 | 14.0 | 0.00 | 0.00 | 0.00 | 55 | 1011.3 |
| 20260504193504 | 83 | 243 | 5.0 | 14.0 | 0.00 | 0.00 | 0.00 | 56 | 1011.3 |
| 20260504193403 | 83 | 193 | 6.0 | 14.0 | 0.00 | 0.00 | 0.00 | 55 | 1011.3 |
| 20260504193302 | 83 | 123 | 8.0 | 14.0 | 0.00 | 0.00 | 0.00 | 55 | 1011.3 |
| 20260504193203 | 83 | 179 | 7.0 | 14.0 | 0.00 | 0.00 | 0.00 | 56 | 1011.4 |
| 20260504193103 | 83 | 111 | 5.0 | 12.0 | 0.00 | 0.00 | 0.00 | 56 | 1011.3 |
| 20260504193004 | 83 | 128 | 4.0 | 12.0 | 0.00 | 0.00 | 0.00 | 55 | 1011.4 |
| 20260504192902 | 83 | 71 | 6.0 | 12.0 | 0.00 | 0.00 | 0.00 | 54 | 1011.5 |
| 20260504192803 | 83 | 148 | 7.0 | 12.0 | 0.00 | 0.00 | 0.00 | 53 | 1011.4 |
| 20260504192703 | 83 | 78 | 6.0 | 11.0 | 0.00 | 0.00 | 0.00 | 54 | 1011.4 |
| 20260504192602 | 84 | 135 | 4.0 | 10.0 | 0.00 | 0.00 | 0.00 | 53 | 1011.4 |
| 20260504192505 | 84 | 223 | 3.0 | 12.0 | 0.00 | 0.00 | 0.00 | 52 | 1011.4 |
| 20260504192404 | 84 | 186 | 4.0 | 12.0 | 0.00 | 0.00 | 0.00 | 54 | 1011.5 |
| 20260504192304 | 84 | 154 | 3.0 | 12.0 | 0.00 | 0.00 | 0.00 | 55 | 1011.5 |
| 20260504192202 | 83 | 82 | 4.0 | 12.0 | 0.00 | 0.00 | 0.00 | 56 | 1011.5 |
| 20260504192104 | 83 | 189 | 6.0 | 13.0 | 0.00 | 0.00 | 0.00 | 56 | 1011.5 |
| 20260504192002 | 83 | 148 | 6.0 | 13.0 | 0.00 | 0.00 | 0.00 | 56 | 1011.6 |
| 20260504191901 | 82 | 145 | 5.0 | 13.0 | 0.00 | 0.00 | 0.00 | 56 | 1011.7 |
| 20260504191801 | 82 | 213 | 5.0 | 13.0 | 0.00 | 0.00 | 0.00 | 56 | 1011.6 |
| 20260504191702 | 82 | 166 | 8.0 | 13.0 | 0.00 | 0.00 | 0.00 | 55 | 1011.7 |
| 20260504191601 | 82 | 171 | 8.0 | 14.0 | 0.00 | 0.00 | 0.00 | 55 | 1011.6 |
| 20260504191503 | 83 | 203 | 6.0 | 14.0 | 0.00 | 0.00 | 0.00 | 55 | 1011.7 |
| 20260504191403 | 83 | 173 | 6.0 | 14.0 | 0.00 | 0.00 | 0.00 | 54 | 1011.6 |
| 20260504191303 | 83 | 199 | 8.0 | 14.0 | 0.00 | 0.00 | 0.00 | 54 | 1011.6 |
| 20260504191202 | 83 | 228 | 7.0 | 14.0 | 0.00 | 0.00 | 0.00 | 54 | 1011.6 |
| 20260504191104 | 83 | 226 | 4.0 | 14.0 | 0.00 | 0.00 | 0.00 | 54 | 1011.8 |
| 20260504191002 | 83 | 243 | 5.0 | 14.0 | 0.00 | 0.00 | 0.00 | 55 | 1011.8 |
| 20260504190902 | 82 | 233 | 7.0 | 15.0 | 0.00 | 0.00 | 0.00 | 55 | 1011.7 |
| 20260504190804 | 83 | 221 | 8.0 | 15.0 | 0.00 | 0.00 | 0.00 | 54 | 1011.8 |
| 20260504190702 | 83 | 165 | 7.0 | 15.0 | 0.00 | 0.00 | 0.00 | 55 | 1011.9 |
| 20260504190603 | 83 | 165 | 6.0 | 15.0 | 0.00 | 0.00 | 0.00 | 55 | 1011.8 |
| 20260504190504 | 82 | 109 | 6.0 | 15.0 | 0.00 | 0.00 | 0.00 | 56 | 1011.8 |
| 20260504190404 | 82 | 154 | 7.0 | 15.0 | 0.00 | 0.00 | 0.00 | 55 | 1011.8 |
| 20260504190301 | 82 | 189 | 8.0 | 15.0 | 0.00 | 0.00 | 0.00 | 55 | 1011.8 |
| 20260504190200 | 82 | 189 | 9.0 | 15.0 | 0.00 | 0.00 | 0.00 | 55 | 1011.8 |
| 20260504190059 | 82 | 202 | 10.0 | 15.0 | 0.00 | 0.00 | 0.00 | 55 | 1011.8 |
| 20260504185956 | 82 | 203 | 9.0 | 17.0 | 0.00 | 0.00 | 0.00 | 56 | 1011.7 |
| 20260504185855 | 82 | 259 | 8.0 | 17.0 | 0.00 | 0.00 | 0.00 | 55 | 1011.8 |
| 20260504185754 | 82 | 234 | 9.0 | 17.0 | 0.00 | 0.00 | 0.00 | 54 | 1011.9 |
| 20260504185652 | 82 | 206 | 9.0 | 17.0 | 0.00 | 0.00 | 0.00 | 54 | 1011.8 |
| 20260504185551 | 82 | 227 | 9.0 | 17.0 | 0.00 | 0.00 | 0.00 | 53 | 1011.9 |
| 20260504185449 | 83 | 206 | 9.0 | 17.0 | 0.00 | 0.00 | 0.00 | 53 | 1011.9 |
| 20260504185348 | 83 | 190 | 8.0 | 17.0 | 0.00 | 0.00 | 0.00 | 53 | 1011.8 |
| 20260504185246 | 83 | 188 | 9.0 | 17.0 | 0.00 | 0.00 | 0.00 | 52 | 1011.9 |
| 20260504185146 | 83 | 214 | 9.0 | 17.0 | 0.00 | 0.00 | 0.00 | 52 | 1011.9 |
| 20260504185045 | 84 | 261 | 9.0 | 17.0 | 0.00 | 0.00 | 0.00 | 54 | 1011.9 |
| 20260504184944 | 84 | 224 | 7.0 | 16.0 | 0.00 | 0.00 | 0.00 | 53 | 1011.9 |
| 20260504184842 | 83 | 173 | 5.0 | 17.0 | 0.00 | 0.00 | 0.00 | 54 | 1011.9 |
| 20260504184740 | 84 | 109 | 4.0 | 17.0 | 0.00 | 0.00 | 0.00 | 53 | 1011.9 |
| 20260504184638 | 84 | 202 | 3.0 | 17.0 | 0.00 | 0.00 | 0.00 | 53 | 1011.9 |
| 20260504184540 | 84 | 117 | 3.0 | 17.0 | 0.00 | 0.00 | 0.00 | 55 | 1012.0 |
| 20260504184437 | 83 | 189 | 6.0 | 17.0 | 0.00 | 0.00 | 0.00 | 54 | 1012.0 |
| 20260504184339 | 83 | 117 | 6.0 | 17.0 | 0.00 | 0.00 | 0.00 | 55 | 1012.0 |
| 20260504184239 | 82 | 142 | 6.0 | 17.0 | 0.00 | 0.00 | 0.00 | 55 | 1012.0 |
| 20260504184138 | 82 | 107 | 8.0 | 17.0 | 0.00 | 0.00 | 0.00 | 54 | 1012.0 |
| 20260504184039 | 82 | 135 | 11.0 | 17.0 | 0.00 | 0.00 | 0.00 | 54 | 1012.0 |
| 20260504183938 | 82 | 161 | 10.0 | 17.0 | 0.00 | 0.00 | 0.00 | 54 | 1012.0 |
| 20260504183837 | 82 | 206 | 8.0 | 15.0 | 0.00 | 0.00 | 0.00 | 54 | 1012.0 |
| 20260504183737 | 82 | 210 | 7.0 | 13.0 | 0.00 | 0.00 | 0.00 | 55 | 1012.0 |
| 20260504183638 | 82 | 213 | 7.0 | 13.0 | 0.00 | 0.00 | 0.00 | 52 | 1012.0 |
| 20260504183537 | 82 | 202 | 7.0 | 13.0 | 0.00 | 0.00 | 0.00 | 52 | 1011.9 |
| 20260504183437 | 83 | 248 | 8.0 | 13.0 | 0.00 | 0.00 | 0.00 | 52 | 1012.0 |
| 20260504183337 | 83 | 235 | 8.0 | 13.0 | 0.00 | 0.00 | 0.00 | 51 | 1011.9 |
| 20260504183238 | 84 | 226 | 7.0 | 14.0 | 0.00 | 0.00 | 0.00 | 52 | 1012.0 |
| 20260504183137 | 84 | 214 | 6.0 | 14.0 | 0.00 | 0.00 | 0.00 | 54 | 1012.0 |
| 20260504183039 | 84 | 162 | 5.0 | 16.0 | 0.00 | 0.00 | 0.00 | 55 | 1011.9 |
| 20260504182938 | 83 | 106 | 4.0 | 16.0 | 0.00 | 0.00 | 0.00 | 56 | 1011.8 |
| 20260504182838 | 83 | 149 | 4.0 | 16.0 | 0.00 | 0.00 | 0.00 | 56 | 1011.8 |
| 20260504182737 | 82 | 276 | 4.0 | 16.0 | 0.00 | 0.00 | 0.00 | 54 | 1011.8 |
| 20260504182639 | 82 | 233 | 4.0 | 16.0 | 0.00 | 0.00 | 0.00 | 54 | 1011.9 |
| 20260504182537 | 82 | 220 | 4.0 | 16.0 | 0.00 | 0.00 | 0.00 | 54 | 1011.8 |
| 20260504182438 | 82 | 233 | 6.0 | 16.0 | 0.00 | 0.00 | 0.00 | 54 | 1011.9 |
| 20260504182335 | 82 | 227 | 8.0 | 16.0 | 0.00 | 0.00 | 0.00 | 54 | 1012.0 |
| 20260504182234 | 82 | 210 | 8.0 | 16.0 | 0.00 | 0.00 | 0.00 | 54 | 1012.1 |
| 20260504182132 | 82 | 162 | 9.0 | 16.0 | 0.00 | 0.00 | 0.00 | 55 | 1012.1 |
| 20260504182030 | 82 | 168 | 9.0 | 16.0 | 0.00 | 0.00 | 0.00 | 55 | 1012.1 |
| 20260504181932 | 81 | 178 | 8.0 | 16.0 | 0.00 | 0.00 | 0.00 | 56 | 1012.2 |
| 20260504181831 | 81 | 154 | 8.0 | 16.0 | 0.00 | 0.00 | 0.00 | 57 | 1012.2 |
| 20260504181730 | 81 | 165 | 7.0 | 16.0 | 0.00 | 0.00 | 0.00 | 58 | 1012.2 |
| 20260504181627 | 81 | 158 | 7.0 | 16.0 | 0.00 | 0.00 | 0.00 | 58 | 1012.2 |
| 20260504181526 | 80 | 172 | 6.0 | 16.0 | 0.00 | 0.00 | 0.00 | 58 | 1012.2 |
| 20260504181425 | 80 | 190 | 7.0 | 16.0 | 0.00 | 0.00 | 0.00 | 57 | 1012.3 |
| 20260504181323 | 81 | 203 | 10.0 | 16.0 | 0.00 | 0.00 | 0.00 | 56 | 1012.3 |
| 20260504181222 | 81 | 182 | 9.0 | 16.0 | 0.00 | 0.00 | 0.00 | 55 | 1012.3 |
| 20260504181120 | 82 | 142 | 7.0 | 16.0 | 0.00 | 0.00 | 0.00 | 56 | 1012.3 |
| 20260504181020 | 82 | 182 | 9.0 | 16.0 | 0.00 | 0.00 | 0.00 | 55 | 1012.3 |
| 20260504180918 | 82 | 193 | 8.0 | 16.0 | 0.00 | 0.00 | 0.00 | 56 | 1012.3 |
| 20260504180816 | 82 | 231 | 6.0 | 16.0 | 0.00 | 0.00 | 0.00 | 56 | 1012.3 |
| 20260504180715 | 82 | 61 | 7.0 | 16.0 | 0.00 | 0.00 | 0.00 | 56 | 1012.3 |
| 20260504180613 | 82 | 56 | 8.0 | 16.0 | 0.00 | 0.00 | 0.00 | 56 | 1012.3 |
| 20260504180513 | 82 | 172 | 8.0 | 16.0 | 0.00 | 0.00 | 0.00 | 55 | 1012.3 |
| 20260504180410 | 82 | 110 | 9.0 | 16.0 | 0.00 | 0.00 | 0.00 | 57 | 1012.4 |
| 20260504180309 | 81 | 168 | 7.0 | 16.0 | 0.00 | 0.00 | 0.00 | 57 | 1012.4 |
| 20260504180207 | 81 | 166 | 6.0 | 12.0 | 0.00 | 0.00 | 0.00 | 57 | 1012.4 |
| 20260504180106 | 81 | 209 | 8.0 | 12.0 | 0.00 | 0.00 | 0.00 | 57 | 1012.4 |
| 20260504180003 | 81 | 188 | 7.0 | 12.0 | 0.00 | 0.00 | 0.00 | 56 | 1012.5 |
| 20260504175904 | 82 | 151 | 6.0 | 11.0 | 0.00 | 0.00 | 0.00 | 57 | 1012.5 |
| 20260504175803 | 82 | 124 | 6.0 | 11.0 | 0.00 | 0.00 | 0.00 | 57 | 1012.6 |
| 20260504175702 | 82 | 124 | 5.0 | 11.0 | 0.00 | 0.00 | 0.00 | 57 | 1012.5 |
| 20260504175603 | 82 | 99 | 4.0 | 11.0 | 0.00 | 0.00 | 0.00 | 56 | 1012.6 |
| 20260504175503 | 82 | 165 | 4.0 | 11.0 | 0.00 | 0.00 | 0.00 | 58 | 1012.5 |
| 20260504175403 | 81 | 104 | 4.0 | 11.0 | 0.00 | 0.00 | 0.00 | 58 | 1012.5 |
| 20260504175304 | 81 | 197 | 5.0 | 11.0 | 0.00 | 0.00 | 0.00 | 57 | 1012.4 |
| 20260504175202 | 81 | 180 | 5.0 | 11.0 | 0.00 | 0.00 | 0.00 | 57 | 1012.6 |
| 20260504175102 | 81 | 220 | 4.0 | 11.0 | 0.00 | 0.00 | 0.00 | 59 | 1012.6 |
| 20260504175004 | 80 | 58 | 5.0 | 11.0 | 0.00 | 0.00 | 0.00 | 58 | 1012.6 |
| 20260504174904 | 80 | 203 | 5.0 | 15.0 | 0.00 | 0.00 | 0.00 | 57 | 1012.5 |
| 20260504174802 | 80 | 221 | 5.0 | 15.0 | 0.00 | 0.00 | 0.00 | 59 | 1012.6 |
| 20260504174702 | 80 | 223 | 4.0 | 15.0 | 0.00 | 0.00 | 0.00 | 60 | 1012.6 |
| 20260504174604 | 79 | 148 | 6.0 | 15.0 | 0.00 | 0.00 | 0.00 | 59 | 1012.6 |
| 20260504174503 | 79 | 123 | 8.0 | 15.0 | 0.00 | 0.00 | 0.00 | 58 | 1012.6 |
| 20260504174402 | 79 | 72 | 6.0 | 15.0 | 0.00 | 0.00 | 0.00 | 58 | 1012.6 |
| 20260504174302 | 80 | 162 | 6.0 | 15.0 | 0.00 | 0.00 | 0.00 | 57 | 1012.6 |
| 20260504174202 | 80 | 147 | 6.0 | 15.0 | 0.00 | 0.00 | 0.00 | 56 | 1012.7 |
| 20260504174102 | 80 | 87 | 6.0 | 15.0 | 0.00 | 0.00 | 0.00 | 57 | 1012.7 |
| 20260504174002 | 81 | 145 | 7.0 | 15.0 | 0.00 | 0.00 | 0.00 | 56 | 1012.7 |
| 20260504173904 | 81 | 172 | 6.0 | 14.0 | 0.00 | 0.00 | 0.00 | 56 | 1012.7 |
| 20260504173803 | 81 | 179 | 7.0 | 14.0 | 0.00 | 0.00 | 0.00 | 57 | 1012.7 |
| 20260504173702 | 81 | 123 | 6.0 | 14.0 | 0.00 | 0.00 | 0.00 | 56 | 1012.8 |
| 20260504173602 | 81 | 165 | 7.0 | 14.0 | 0.00 | 0.00 | 0.00 | 55 | 1012.8 |
| 20260504173504 | 81 | 158 | 8.0 | 14.0 | 0.00 | 0.00 | 0.00 | 56 | 1012.8 |
| 20260504173402 | 81 | 173 | 8.0 | 14.0 | 0.00 | 0.00 | 0.00 | 55 | 1012.8 |
| 20260504173303 | 82 | 186 | 7.0 | 16.0 | 0.00 | 0.00 | 0.00 | 55 | 1012.7 |
| 20260504173203 | 82 | 180 | 5.0 | 16.0 | 0.00 | 0.00 | 0.00 | 57 | 1012.8 |
| 20260504173102 | 81 | 255 | 6.0 | 16.0 | 0.00 | 0.00 | 0.00 | 57 | 1012.8 |
| 20260504173002 | 81 | 221 | 6.0 | 16.0 | 0.00 | 0.00 | 0.00 | 56 | 1012.9 |
| 20260504172903 | 81 | 209 | 5.0 | 16.0 | 0.00 | 0.00 | 0.00 | 56 | 1012.8 |
| 20260504172802 | 80 | 175 | 5.0 | 16.0 | 0.00 | 0.00 | 0.00 | 55 | 1012.8 |
| 20260504172703 | 81 | 185 | 5.0 | 16.0 | 0.00 | 0.00 | 0.00 | 55 | 1012.9 |
| 20260504172603 | 80 | 175 | 5.0 | 16.0 | 0.00 | 0.00 | 0.00 | 57 | 1013.0 |
| 20260504172505 | 80 | 206 | 10.0 | 16.0 | 0.00 | 0.00 | 0.00 | 57 | 1012.9 |
| 20260504172402 | 81 | 235 | 10.0 | 16.0 | 0.00 | 0.00 | 0.00 | 56 | 1013.0 |
| 20260504172303 | 81 | 224 | 7.0 | 16.0 | 0.00 | 0.00 | 0.00 | 57 | 1013.0 |
| 20260504172203 | 81 | 183 | 6.0 | 16.0 | 0.00 | 0.00 | 0.00 | 57 | 1013.0 |
| 20260504172102 | 80 | 135 | 7.0 | 16.0 | 0.00 | 0.00 | 0.00 | 57 | 1013.0 |
| 20260504172004 | 80 | 192 | 8.0 | 16.0 | 0.00 | 0.00 | 0.00 | 56 | 1013.1 |
| 20260504171902 | 80 | 197 | 6.0 | 16.0 | 0.00 | 0.00 | 0.00 | 57 | 1013.1 |
| 20260504171802 | 80 | 212 | 7.0 | 15.0 | 0.00 | 0.00 | 0.00 | 56 | 1013.1 |
| 20260504171703 | 80 | 183 | 9.0 | 15.0 | 0.00 | 0.00 | 0.00 | 56 | 1013.1 |
| 20260504171603 | 80 | 203 | 9.0 | 15.0 | 0.00 | 0.00 | 0.00 | 56 | 1013.2 |
| 20260504171506 | 80 | 206 | 7.0 | 15.0 | 0.00 | 0.00 | 0.00 | 55 | 1013.1 |
| 20260504171403 | 80 | 159 | 7.0 | 14.0 | 0.00 | 0.00 | 0.00 | 55 | 1013.1 |
| 20260504171303 | 80 | 164 | 8.0 | 15.0 | 0.00 | 0.00 | 0.00 | 54 | 1013.1 |
| 20260504171204 | 81 | 130 | 8.0 | 15.0 | 0.00 | 0.00 | 0.00 | 55 | 1013.2 |
| 20260504171103 | 81 | 161 | 7.0 | 15.0 | 0.00 | 0.00 | 0.00 | 56 | 1013.2 |
| 20260504171002 | 81 | 165 | 7.0 | 15.0 | 0.00 | 0.00 | 0.00 | 56 | 1013.1 |
| 20260504170903 | 80 | 192 | 7.0 | 15.0 | 0.00 | 0.00 | 0.00 | 56 | 1013.2 |
| 20260504170804 | 80 | 158 | 8.0 | 15.0 | 0.00 | 0.00 | 0.00 | 57 | 1013.3 |
| 20260504170701 | 80 | 176 | 7.0 | 15.0 | 0.00 | 0.00 | 0.00 | 57 | 1013.2 |
| 20260504170602 | 80 | 172 | 5.0 | 15.0 | 0.00 | 0.00 | 0.00 | 57 | 1013.1 |
| 20260504170505 | 80 | 134 | 5.0 | 15.0 | 0.00 | 0.00 | 0.00 | 57 | 1013.1 |
| 20260504170404 | 80 | 309 | 6.0 | 15.0 | 0.00 | 0.00 | 0.00 | 57 | 1013.1 |
| 20260504170303 | 80 | 195 | 7.0 | 14.0 | 0.00 | 0.00 | 0.00 | 58 | 1013.1 |
| 20260504170202 | 80 | 238 | 9.0 | 14.0 | 0.00 | 0.00 | 0.00 | 58 | 1013.3 |
| 20260504170104 | 80 | 199 | 9.0 | 14.0 | 0.00 | 0.00 | 0.00 | 57 | 1013.2 |
| 20260504160434 | 78 | 103 | 5.0 | 14.0 | 0.00 | 0.00 | 0.00 | 62 | 1014.0 |
| 20260504160334 | 78 | 204 | 7.0 | 15.0 | 0.00 | 0.00 | 0.00 | 61 | 1014.0 |
| 20260504160233 | 78 | 212 | 5.0 | 15.0 | 0.00 | 0.00 | 0.00 | 63 | 1014.0 |
| 20260504160134 | 78 | 164 | 4.0 | 15.0 | 0.00 | 0.00 | 0.00 | 63 | 1014.0 |
| 20260504151127 | 75 | 134 | 7.0 | 15.0 | 0.00 | 0.00 | 0.00 | 65 | 1014.2 |
| 20260504151026 | 75 | 102 | 9.0 | 16.0 | 0.00 | 0.00 | 0.00 | 65 | 1014.2 |
| 20260504150925 | 75 | 152 | 9.0 | 16.0 | 0.00 | 0.00 | 0.00 | 64 | 1014.2 |
| 20260504150824 | 75 | 104 | 8.0 | 16.0 | 0.00 | 0.00 | 0.00 | 65 | 1014.2 |
| 20260504150721 | 76 | 75 | 8.0 | 16.0 | 0.00 | 0.00 | 0.00 | 64 | 1014.1 |
| 20260504150621 | 75 | 190 | 6.0 | 16.0 | 0.00 | 0.00 | 0.00 | 65 | 1014.2 |
| 20260504150519 | 75 | 195 | 5.0 | 16.0 | 0.00 | 0.00 | 0.00 | 65 | 1014.1 |
| 20260504150415 | 75 | 190 | 6.0 | 16.0 | 0.00 | 0.00 | 0.00 | 65 | 1014.2 |
| 20260504150315 | 75 | 226 | 7.0 | 16.0 | 0.00 | 0.00 | 0.00 | 65 | 1014.2 |
| 20260504150215 | 75 | 243 | 9.0 | 16.0 | 0.00 | 0.00 | 0.00 | 64 | 1014.2 |
| 20260504150115 | 75 | 189 | 10.0 | 16.0 | 0.00 | 0.00 | 0.00 | 64 | 1014.3 |
| 20260504141332 | 72 | 159 | 4.0 | 10.0 | 0.00 | 0.00 | 0.00 | 67 | 1014.1 |
| 20260504141232 | 72 | 207 | 5.0 | 10.0 | 0.00 | 0.00 | 0.00 | 67 | 1014.1 |
| 20260504141131 | 72 | 175 | 5.0 | 10.0 | 0.00 | 0.00 | 0.00 | 67 | 1014.1 |
| 20260504141031 | 72 | 166 | 6.0 | 10.0 | 0.00 | 0.00 | 0.00 | 67 | 1014.0 |
| 20260504140933 | 72 | 183 | 6.0 | 10.0 | 0.00 | 0.00 | 0.00 | 67 | 1014.0 |
| 20260504140832 | 72 | 158 | 6.0 | 10.0 | 0.00 | 0.00 | 0.00 | 67 | 1014.1 |
| 20260504140731 | 72 | 171 | 4.0 | 9.0 | 0.00 | 0.00 | 0.00 | 67 | 1014.0 |
| 20260504140632 | 72 | 103 | 4.0 | 9.0 | 0.00 | 0.00 | 0.00 | 67 | 1014.1 |
| 20260504140530 | 72 | 173 | 5.0 | 10.0 | 0.00 | 0.00 | 0.00 | 67 | 1014.1 |
| 20260504140431 | 72 | 152 | 4.0 | 12.0 | 0.00 | 0.00 | 0.00 | 67 | 1014.2 |
| 20260504140331 | 71 | 175 | 3.0 | 12.0 | 0.00 | 0.00 | 0.00 | 68 | 1014.2 |
| 20260504140232 | 71 | 130 | 2.0 | 12.0 | 0.00 | 0.00 | 0.00 | 68 | 1014.2 |
| 20260504140131 | 71 | 75 | 3.0 | 12.0 | 0.00 | 0.00 | 0.00 | 68 | 1014.1 |
| 20260504130731 | 67 | 141 | 1.0 | 4.0 | 0.00 | 0.00 | 0.00 | 75 | 1014.3 |
| 20260504130630 | 66 | 131 | 1.0 | 5.0 | 0.00 | 0.00 | 0.00 | 75 | 1014.2 |
| 20260504130531 | 66 | 116 | 2.0 | 5.0 | 0.00 | 0.00 | 0.00 | 75 | 1014.3 |
| 20260504130431 | 66 | 166 | 2.0 | 5.0 | 0.00 | 0.00 | 0.00 | 75 | 1014.2 |
| 20260504130331 | 66 | 130 | 2.0 | 5.0 | 0.00 | 0.00 | 0.00 | 75 | 1014.3 |
| 20260504130230 | 66 | 130 | 2.0 | 5.0 | 0.00 | 0.00 | 0.00 | 75 | 1014.2 |
| 20260504130131 | 66 | 134 | 3.0 | 5.0 | 0.00 | 0.00 | 0.00 | 75 | 1014.3 |
| 20260504120303 | 62 | 32 | 0.0 | 0.0 | 0.00 | 0.00 | 0.00 | 80 | 1013.9 |
| 20260504120202 | 62 | 30 | 0.0 | 0.0 | 0.00 | 0.00 | 0.00 | 80 | 1013.8 |
| 20260504110629 | 61 | 30 | 0.0 | 0.0 | 0.00 | 0.00 | 0.00 | 80 | 1013.7 |
| 20260504110527 | 61 | 30 | 0.0 | 0.0 | 0.00 | 0.00 | 0.00 | 80 | 1013.7 |
| 20260504110428 | 61 | 28 | 0.0 | 0.0 | 0.00 | 0.00 | 0.00 | 80 | 1013.7 |
| 20260504110327 | 61 | 28 | 0.0 | 0.0 | 0.00 | 0.00 | 0.00 | 80 | 1013.7 |
| 20260504110229 | 61 | 28 | 0.0 | 0.0 | 0.00 | 0.00 | 0.00 | 80 | 1013.7 |
| 20260504110126 | 61 | 28 | 0.0 | 0.0 | 0.00 | 0.00 | 0.00 | 80 | 1013.8 |
| 20260504100526 | 61 | 25 | 1.0 | 4.0 | 0.00 | 0.00 | 0.00 | 80 | 1013.8 |
| 20260504100425 | 61 | 30 | 2.0 | 4.0 | 0.00 | 0.00 | 0.00 | 80 | 1013.9 |
| 20260504100326 | 61 | 24 | 2.0 | 4.0 | 0.00 | 0.00 | 0.00 | 80 | 1013.9 |
| 20260504100225 | 61 | 30 | 0.0 | 4.0 | 0.00 | 0.00 | 0.00 | 80 | 1013.9 |
| 20260504100127 | 61 | 25 | 0.0 | 1.0 | 0.00 | 0.00 | 0.00 | 80 | 1014.0 |
| 20260504090126 | 61 | 41 | 0.0 | 0.0 | 0.00 | 0.00 | 0.00 | 81 | 1014.4 |
| 20260504082004 | 61 | 35 | 0.0 | 0.0 | 0.00 | 0.00 | 0.00 | 80 | 1014.6 |
| 20260504081903 | 61 | 35 | 0.0 | 0.0 | 0.00 | 0.00 | 0.00 | 80 | 1014.5 |
| 20260504081802 | 61 | 35 | 0.0 | 0.0 | 0.00 | 0.00 | 0.00 | 80 | 1014.6 |
| 20260504081701 | 62 | 35 | 0.0 | 0.0 | 0.00 | 0.00 | 0.00 | 80 | 1014.7 |
| 20260504081602 | 61 | 37 | 0.0 | 0.0 | 0.00 | 0.00 | 0.00 | 80 | 1014.7 |
| 20260504081505 | 61 | 37 | 0.0 | 0.0 | 0.00 | 0.00 | 0.00 | 80 | 1014.7 |
| 20260504081404 | 62 | 35 | 0.0 | 0.0 | 0.00 | 0.00 | 0.00 | 80 | 1014.7 |
| 20260504081302 | 61 | 37 | 0.0 | 0.0 | 0.00 | 0.00 | 0.00 | 80 | 1014.8 |
| 20260504081204 | 61 | 35 | 0.0 | 0.0 | 0.00 | 0.00 | 0.00 | 80 | 1014.7 |
| 20260504081103 | 61 | 35 | 0.0 | 0.0 | 0.00 | 0.00 | 0.00 | 80 | 1014.6 |
| 20260504081003 | 61 | 35 | 0.0 | 0.0 | 0.00 | 0.00 | 0.00 | 80 | 1014.7 |
| 20260504080901 | 61 | 35 | 0.0 | 0.0 | 0.00 | 0.00 | 0.00 | 80 | 1014.6 |
| 20260504080803 | 62 | 35 | 0.0 | 0.0 | 0.00 | 0.00 | 0.00 | 79 | 1014.6 |
| 20260504080702 | 61 | 35 | 0.0 | 0.0 | 0.00 | 0.00 | 0.00 | 79 | 1014.6 |
| 20260504080602 | 62 | 35 | 0.0 | 0.0 | 0.00 | 0.00 | 0.00 | 79 | 1014.7 |
| 20260504080502 | 62 | 35 | 0.0 | 0.0 | 0.00 | 0.00 | 0.00 | 79 | 1014.8 |
| 20260504080403 | 62 | 35 | 0.0 | 0.0 | 0.00 | 0.00 | 0.00 | 79 | 1014.8 |
| 20260504080303 | 62 | 34 | 0.0 | 0.0 | 0.00 | 0.00 | 0.00 | 79 | 1014.8 |
| 20260504080203 | 62 | 37 | 0.0 | 0.0 | 0.00 | 0.00 | 0.00 | 79 | 1014.9 |
| 20260504070403 | 64 | 32 | 1.0 | 3.0 | 0.00 | 0.00 | 0.00 | 71 | 1015.6 |
| 20260504070303 | 64 | 34 | 1.0 | 3.0 | 0.00 | 0.00 | 0.00 | 71 | 1015.6 |
| 20260504070200 | 64 | 32 | 1.0 | 3.0 | 0.00 | 0.00 | 0.00 | 71 | 1015.6 |
| 20260504060221 | 64 | 27 | 0.0 | 3.0 | 0.00 | 0.00 | 0.00 | 70 | 1016.0 |
| 20260504060121 | 64 | 28 | 0.0 | 3.0 | 0.00 | 0.00 | 0.00 | 70 | 1016.0 |
| 20260504050220 | 65 | 27 | 2.0 | 3.0 | 0.00 | 0.00 | 0.00 | 69 | 1016.4 |
| 20260504050120 | 65 | 24 | 2.0 | 3.0 | 0.00 | 0.00 | 0.00 | 69 | 1016.5 |
| 20260504050020 | 65 | 28 | 1.0 | 3.0 | 0.00 | 0.00 | 0.00 | 69 | 1016.5 |
| 20260504045919 | 65 | 24 | 0.0 | 0.0 | 0.00 | 0.00 | 0.00 | 69 | 1016.5 |
| 20260504045820 | 65 | 24 | 0.0 | 1.0 | 0.00 | 0.00 | 0.00 | 69 | 1016.4 |
| 20260504045719 | 65 | 23 | 0.0 | 2.0 | 0.00 | 0.00 | 0.00 | 69 | 1016.4 |
| 20260504045618 | 65 | 25 | 0.0 | 2.0 | 0.00 | 0.00 | 0.00 | 69 | 1016.5 |
| 20260504045520 | 65 | 27 | 0.0 | 3.0 | 0.00 | 0.00 | 0.00 | 69 | 1016.4 |
| 20260504045420 | 65 | 25 | 0.0 | 3.0 | 0.00 | 0.00 | 0.00 | 69 | 1016.3 |
| 20260504045319 | 65 | 25 | 0.0 | 3.0 | 0.00 | 0.00 | 0.00 | 69 | 1016.4 |
| 20260504045218 | 65 | 27 | 0.0 | 3.0 | 0.00 | 0.00 | 0.00 | 68 | 1016.4 |
| 20260504045120 | 65 | 28 | 0.0 | 3.0 | 0.00 | 0.00 | 0.00 | 68 | 1016.5 |
| 20260504045019 | 65 | 30 | 0.0 | 3.0 | 0.00 | 0.00 | 0.00 | 68 | 1016.5 |
| 20260504044918 | 65 | 30 | 1.0 | 3.0 | 0.00 | 0.00 | 0.00 | 68 | 1016.5 |
| 20260504044819 | 65 | 30 | 1.0 | 3.0 | 0.00 | 0.00 | 0.00 | 68 | 1016.5 |
| 20260504044718 | 65 | 30 | 1.0 | 3.0 | 0.00 | 0.00 | 0.00 | 68 | 1016.5 |
| 20260504044619 | 65 | 30 | 1.0 | 3.0 | 0.00 | 0.00 | 0.00 | 68 | 1016.6 |
| 20260504044519 | 65 | 34 | 0.0 | 3.0 | 0.00 | 0.00 | 0.00 | 67 | 1016.5 |
| 20260504044420 | 66 | 32 | 0.0 | 3.0 | 0.00 | 0.00 | 0.00 | 67 | 1016.5 |
| 20260504044320 | 66 | 32 | 0.0 | 3.0 | 0.00 | 0.00 | 0.00 | 67 | 1016.6 |
| 20260504044219 | 66 | 31 | 0.0 | 4.0 | 0.00 | 0.00 | 0.00 | 67 | 1016.6 |
| 20260504044119 | 66 | 32 | 0.0 | 4.0 | 0.00 | 0.00 | 0.00 | 67 | 1016.6 |
| 20260504044019 | 66 | 32 | 1.0 | 4.0 | 0.00 | 0.00 | 0.00 | 67 | 1016.6 |
| 20260504043918 | 66 | 32 | 2.0 | 4.0 | 0.00 | 0.00 | 0.00 | 67 | 1016.5 |
| 20260504043816 | 66 | 32 | 2.0 | 4.0 | 0.00 | 0.00 | 0.00 | 67 | 1016.5 |
| 20260504043715 | 66 | 32 | 2.0 | 4.0 | 0.00 | 0.00 | 0.00 | 67 | 1016.6 |
| 20260504043612 | 66 | 34 | 1.0 | 4.0 | 0.00 | 0.00 | 0.00 | 67 | 1016.6 |
| 20260504043511 | 66 | 34 | 1.0 | 5.0 | 0.00 | 0.00 | 0.00 | 67 | 1016.5 |
| 20260504043408 | 66 | 24 | 2.0 | 5.0 | 0.00 | 0.00 | 0.00 | 67 | 1016.6 |
| 20260504043304 | 66 | 24 | 2.0 | 5.0 | 0.00 | 0.00 | 0.00 | 67 | 1016.6 |
| 20260504043202 | 66 | 27 | 1.0 | 5.0 | 0.00 | 0.00 | 0.00 | 67 | 1016.5 |
| 20260504043103 | 66 | 21 | 0.0 | 6.0 | 0.00 | 0.00 | 0.00 | 66 | 1016.5 |
| 20260504043004 | 66 | 30 | 0.0 | 6.0 | 0.00 | 0.00 | 0.00 | 66 | 1016.6 |
| 20260504042903 | 66 | 31 | 1.0 | 6.0 | 0.00 | 0.00 | 0.00 | 66 | 1016.6 |
| 20260504042801 | 66 | 31 | 2.0 | 6.0 | 0.00 | 0.00 | 0.00 | 66 | 1016.6 |
| 20260504042701 | 66 | 27 | 3.0 | 6.0 | 0.00 | 0.00 | 0.00 | 66 | 1016.7 |
| 20260504042603 | 66 | 34 | 3.0 | 6.0 | 0.00 | 0.00 | 0.00 | 66 | 1016.7 |
| 20260504042502 | 66 | 30 | 3.0 | 6.0 | 0.00 | 0.00 | 0.00 | 66 | 1016.6 |
| 20260504042403 | 66 | 31 | 2.0 | 6.0 | 0.00 | 0.00 | 0.00 | 66 | 1016.6 |
| 20260504042304 | 66 | 32 | 3.0 | 6.0 | 0.00 | 0.00 | 0.00 | 66 | 1016.6 |
| 20260504042203 | 66 | 32 | 3.0 | 6.0 | 0.00 | 0.00 | 0.00 | 66 | 1016.6 |
| 20260504042102 | 66 | 37 | 2.0 | 5.0 | 0.00 | 0.00 | 0.00 | 66 | 1016.6 |
| 20260504042003 | 66 | 30 | 2.0 | 5.0 | 0.00 | 0.00 | 0.00 | 66 | 1016.6 |
| 20260504041903 | 66 | 30 | 3.0 | 5.0 | 0.00 | 0.00 | 0.00 | 66 | 1016.6 |
| 20260504041803 | 66 | 34 | 4.0 | 5.0 | 0.00 | 0.00 | 0.00 | 66 | 1016.6 |
| 20260504041703 | 66 | 31 | 3.0 | 5.0 | 0.00 | 0.00 | 0.00 | 66 | 1016.6 |
| 20260504041602 | 66 | 30 | 3.0 | 5.0 | 0.00 | 0.00 | 0.00 | 66 | 1016.6 |
| 20260504041503 | 66 | 34 | 3.0 | 5.0 | 0.00 | 0.00 | 0.00 | 66 | 1016.6 |
| 20260504041403 | 66 | 25 | 2.0 | 5.0 | 0.00 | 0.00 | 0.00 | 66 | 1016.6 |
| 20260504041303 | 67 | 28 | 2.0 | 4.0 | 0.00 | 0.00 | 0.00 | 66 | 1016.6 |
| 20260504041203 | 67 | 28 | 2.0 | 4.0 | 0.00 | 0.00 | 0.00 | 66 | 1016.6 |
| 20260504041102 | 67 | 34 | 2.0 | 4.0 | 0.00 | 0.00 | 0.00 | 66 | 1016.6 |
| 20260504040959 | 66 | 35 | 2.0 | 4.0 | 0.00 | 0.00 | 0.00 | 66 | 1016.7 |
| 20260504040857 | 66 | 34 | 3.0 | 4.0 | 0.00 | 0.00 | 0.00 | 66 | 1016.6 |
| 20260504040756 | 66 | 35 | 2.0 | 4.0 | 0.00 | 0.00 | 0.00 | 66 | 1016.6 |
| 20260504040655 | 66 | 32 | 2.0 | 4.0 | 0.00 | 0.00 | 0.00 | 66 | 1016.7 |
| 20260504040552 | 66 | 31 | 2.0 | 4.0 | 0.00 | 0.00 | 0.00 | 66 | 1016.6 |
| 20260504040452 | 66 | 25 | 2.0 | 4.0 | 0.00 | 0.00 | 0.00 | 66 | 1016.5 |
| 20260504040349 | 66 | 25 | 2.0 | 4.0 | 0.00 | 0.00 | 0.00 | 66 | 1016.6 |
| 20260504040248 | 66 | 28 | 2.0 | 4.0 | 0.00 | 0.00 | 0.00 | 66 | 1016.6 |
| 20260504040148 | 66 | 27 | 2.0 | 4.0 | 0.00 | 0.00 | 0.00 | 66 | 1016.6 |
| 20260504040045 | 66 | 25 | 2.0 | 4.0 | 0.00 | 0.00 | 0.00 | 66 | 1016.6 |
| 20260504035945 | 66 | 31 | 2.0 | 4.0 | 0.00 | 0.00 | 0.00 | 66 | 1016.5 |
| 20260504035842 | 66 | 30 | 1.0 | 4.0 | 0.00 | 0.00 | 0.00 | 66 | 1016.5 |
| 20260504035741 | 66 | 28 | 1.0 | 4.0 | 0.00 | 0.00 | 0.00 | 66 | 1016.5 |
| 20260504035639 | 66 | 28 | 1.0 | 4.0 | 0.00 | 0.00 | 0.00 | 66 | 1016.5 |
| 20260504035538 | 66 | 28 | 1.0 | 4.0 | 0.00 | 0.00 | 0.00 | 66 | 1016.5 |
| 20260504035438 | 67 | 25 | 1.0 | 4.0 | 0.00 | 0.00 | 0.00 | 66 | 1016.5 |
| 20260504035335 | 67 | 27 | 2.0 | 4.0 | 0.00 | 0.00 | 0.00 | 66 | 1016.5 |
| 20260504035231 | 67 | 27 | 2.0 | 4.0 | 0.00 | 0.00 | 0.00 | 65 | 1016.5 |
| 20260504035132 | 67 | 30 | 2.0 | 4.0 | 0.00 | 0.00 | 0.00 | 65 | 1016.5 |
| 20260504035030 | 67 | 28 | 2.0 | 4.0 | 0.00 | 0.00 | 0.00 | 65 | 1016.5 |
| 20260504034932 | 67 | 28 | 2.0 | 4.0 | 0.00 | 0.00 | 0.00 | 66 | 1016.5 |
| 20260504034832 | 67 | 25 | 2.0 | 4.0 | 0.00 | 0.00 | 0.00 | 66 | 1016.5 |
| 20260504034731 | 67 | 24 | 2.0 | 4.0 | 0.00 | 0.00 | 0.00 | 66 | 1016.6 |
| 20260504034631 | 67 | 31 | 2.0 | 4.0 | 0.00 | 0.00 | 0.00 | 66 | 1016.7 |
| 20260504034531 | 66 | 27 | 2.0 | 4.0 | 0.00 | 0.00 | 0.00 | 66 | 1016.7 |
| 20260504034431 | 66 | 28 | 2.0 | 4.0 | 0.00 | 0.00 | 0.00 | 66 | 1016.7 |
| 20260504034332 | 66 | 30 | 2.0 | 4.0 | 0.00 | 0.00 | 0.00 | 66 | 1016.7 |
| 20260504034231 | 66 | 27 | 1.0 | 4.0 | 0.00 | 0.00 | 0.00 | 66 | 1016.7 |
| 20260504034132 | 67 | 28 | 0.0 | 4.0 | 0.00 | 0.00 | 0.00 | 66 | 1016.6 |
| 20260504034031 | 67 | 27 | 0.0 | 4.0 | 0.00 | 0.00 | 0.00 | 66 | 1016.6 |
| 20260504033931 | 67 | 28 | 0.0 | 4.0 | 0.00 | 0.00 | 0.00 | 66 | 1016.6 |
| 20260504033832 | 67 | 27 | 0.0 | 4.0 | 0.00 | 0.00 | 0.00 | 66 | 1016.6 |
| 20260504033731 | 67 | 27 | 0.0 | 4.0 | 0.00 | 0.00 | 0.00 | 65 | 1016.6 |
| 20260504033631 | 67 | 27 | 1.0 | 4.0 | 0.00 | 0.00 | 0.00 | 65 | 1016.6 |
| 20260504033531 | 67 | 28 | 2.0 | 4.0 | 0.00 | 0.00 | 0.00 | 65 | 1016.6 |
| 20260504033431 | 67 | 25 | 2.0 | 4.0 | 0.00 | 0.00 | 0.00 | 65 | 1016.6 |
| 20260504033332 | 67 | 21 | 2.0 | 4.0 | 0.00 | 0.00 | 0.00 | 65 | 1016.6 |
| 20260504033232 | 67 | 27 | 2.0 | 4.0 | 0.00 | 0.00 | 0.00 | 65 | 1016.6 |
| 20260504033132 | 67 | 27 | 2.0 | 4.0 | 0.00 | 0.00 | 0.00 | 65 | 1016.6 |
| 20260504033031 | 67 | 30 | 2.0 | 4.0 | 0.00 | 0.00 | 0.00 | 65 | 1016.6 |
| 20260504032931 | 67 | 30 | 2.0 | 4.0 | 0.00 | 0.00 | 0.00 | 65 | 1016.6 |
| 20260504032830 | 67 | 31 | 2.0 | 4.0 | 0.00 | 0.00 | 0.00 | 65 | 1016.6 |
| 20260504032732 | 67 | 31 | 2.0 | 4.0 | 0.00 | 0.00 | 0.00 | 65 | 1016.6 |
| 20260504032630 | 67 | 30 | 2.0 | 4.0 | 0.00 | 0.00 | 0.00 | 65 | 1016.7 |
| 20260504032530 | 67 | 32 | 2.0 | 4.0 | 0.00 | 0.00 | 0.00 | 65 | 1016.6 |
| 20260504032427 | 67 | 138 | 2.0 | 4.0 | 0.00 | 0.00 | 0.00 | 65 | 1016.6 |
| 20260504032326 | 67 | 148 | 2.0 | 4.0 | 0.00 | 0.00 | 0.00 | 65 | 1016.6 |
| 20260504032221 | 67 | 141 | 1.0 | 4.0 | 0.00 | 0.00 | 0.00 | 65 | 1016.6 |
| 20260504032119 | 67 | 106 | 1.0 | 4.0 | 0.00 | 0.00 | 0.00 | 64 | 1016.6 |
| 20260504032018 | 67 | 100 | 1.0 | 4.0 | 0.00 | 0.00 | 0.00 | 64 | 1016.6 |
| 20260504031917 | 67 | 100 | 2.0 | 4.0 | 0.00 | 0.00 | 0.00 | 64 | 1016.6 |
| 20260504031818 | 67 | 166 | 1.0 | 4.0 | 0.00 | 0.00 | 0.00 | 64 | 1016.5 |
| 20260504031717 | 68 | 137 | 1.0 | 5.0 | 0.00 | 0.00 | 0.00 | 63 | 1016.6 |
| 20260504031616 | 68 | 142 | 2.0 | 5.0 | 0.00 | 0.00 | 0.00 | 63 | 1016.5 |
| 20260504031516 | 68 | 133 | 2.0 | 5.0 | 0.00 | 0.00 | 0.00 | 63 | 1016.5 |
| 20260504031417 | 68 | 159 | 1.0 | 5.0 | 0.00 | 0.00 | 0.00 | 62 | 1016.5 |
| 20260504031317 | 68 | 131 | 1.0 | 5.0 | 0.00 | 0.00 | 0.00 | 62 | 1016.5 |
| 20260504031216 | 68 | 96 | 2.0 | 5.0 | 0.00 | 0.00 | 0.00 | 62 | 1016.5 |
| 20260504031116 | 68 | 140 | 2.0 | 7.0 | 0.00 | 0.00 | 0.00 | 62 | 1016.5 |
| 20260504031017 | 68 | 148 | 1.0 | 7.0 | 0.00 | 0.00 | 0.00 | 62 | 1016.5 |
| 20260504030916 | 68 | 147 | 2.0 | 7.0 | 0.00 | 0.00 | 0.00 | 62 | 1016.5 |
| 20260504030816 | 68 | 178 | 3.0 | 7.0 | 0.00 | 0.00 | 0.00 | 62 | 1016.5 |
| 20260504030718 | 68 | 120 | 3.0 | 7.0 | 0.00 | 0.00 | 0.00 | 62 | 1016.5 |
| 20260504030617 | 68 | 195 | 2.0 | 7.0 | 0.00 | 0.00 | 0.00 | 62 | 1016.5 |
| 20260504030517 | 68 | 171 | 2.0 | 7.0 | 0.00 | 0.00 | 0.00 | 62 | 1016.5 |
| 20260504030417 | 68 | 158 | 3.0 | 7.0 | 0.00 | 0.00 | 0.00 | 62 | 1016.5 |
| 20260504030317 | 68 | 172 | 3.0 | 7.0 | 0.00 | 0.00 | 0.00 | 62 | 1016.6 |
| 20260504030216 | 68 | 168 | 4.0 | 7.0 | 0.00 | 0.00 | 0.00 | 62 | 1016.5 |
| 20260504030116 | 68 | 149 | 2.0 | 7.0 | 0.00 | 0.00 | 0.00 | 62 | 1016.6 |
| 20260504030017 | 68 | 111 | 2.0 | 7.0 | 0.00 | 0.00 | 0.00 | 62 | 1016.5 |
| 20260504025916 | 68 | 164 | 3.0 | 7.0 | 0.00 | 0.00 | 0.00 | 62 | 1016.5 |
| 20260504025818 | 68 | 171 | 2.0 | 7.0 | 0.00 | 0.00 | 0.00 | 62 | 1016.5 |
| 20260504025717 | 69 | 140 | 2.0 | 7.0 | 0.00 | 0.00 | 0.00 | 61 | 1016.4 |
| 20260504025616 | 69 | 144 | 3.0 | 7.0 | 0.00 | 0.00 | 0.00 | 61 | 1016.4 |
| 20260504025517 | 69 | 161 | 3.0 | 7.0 | 0.00 | 0.00 | 0.00 | 61 | 1016.3 |
| 20260504025416 | 69 | 118 | 3.0 | 7.0 | 0.00 | 0.00 | 0.00 | 61 | 1016.4 |
| 20260504025318 | 69 | 193 | 4.0 | 7.0 | 0.00 | 0.00 | 0.00 | 61 | 1016.4 |
| 20260504025216 | 69 | 183 | 4.0 | 7.0 | 0.00 | 0.00 | 0.00 | 61 | 1016.4 |
| 20260504025116 | 69 | 159 | 3.0 | 7.0 | 0.00 | 0.00 | 0.00 | 61 | 1016.4 |
| 20260504025016 | 69 | 149 | 3.0 | 7.0 | 0.00 | 0.00 | 0.00 | 61 | 1016.5 |
| 20260504024916 | 69 | 147 | 4.0 | 7.0 | 0.00 | 0.00 | 0.00 | 61 | 1016.5 |
| 20260504024815 | 69 | 164 | 4.0 | 7.0 | 0.00 | 0.00 | 0.00 | 61 | 1016.4 |
| 20260504024716 | 69 | 155 | 3.0 | 7.0 | 0.00 | 0.00 | 0.00 | 60 | 1016.4 |
| 20260504024617 | 69 | 159 | 2.0 | 7.0 | 0.00 | 0.00 | 0.00 | 60 | 1016.3 |
| 20260504024517 | 69 | 169 | 4.0 | 7.0 | 0.00 | 0.00 | 0.00 | 60 | 1016.4 |
| 20260504024416 | 69 | 169 | 4.0 | 7.0 | 0.00 | 0.00 | 0.00 | 60 | 1016.4 |
| 20260504024317 | 69 | 169 | 4.0 | 7.0 | 0.00 | 0.00 | 0.00 | 60 | 1016.4 |
| 20260504024215 | 69 | 200 | 4.0 | 9.0 | 0.00 | 0.00 | 0.00 | 60 | 1016.4 |
| 20260504024117 | 69 | 154 | 4.0 | 9.0 | 0.00 | 0.00 | 0.00 | 60 | 1016.4 |
| 20260504024018 | 69 | 116 | 4.0 | 9.0 | 0.00 | 0.00 | 0.00 | 59 | 1016.4 |
| 20260504023916 | 69 | 164 | 4.0 | 10.0 | 0.00 | 0.00 | 0.00 | 59 | 1016.5 |
| 20260504023816 | 69 | 168 | 3.0 | 10.0 | 0.00 | 0.00 | 0.00 | 59 | 1016.5 |
| 20260504023715 | 69 | 128 | 3.0 | 10.0 | 0.00 | 0.00 | 0.00 | 59 | 1016.5 |
| 20260504023616 | 69 | 140 | 4.0 | 10.0 | 0.00 | 0.00 | 0.00 | 59 | 1016.5 |
| 20260504023516 | 70 | 151 | 3.0 | 10.0 | 0.00 | 0.00 | 0.00 | 59 | 1016.4 |
| 20260504023417 | 70 | 159 | 4.0 | 10.0 | 0.00 | 0.00 | 0.00 | 59 | 1016.6 |
| 20260504023315 | 70 | 182 | 5.0 | 10.0 | 0.00 | 0.00 | 0.00 | 58 | 1016.4 |
| 20260504023217 | 70 | 193 | 4.0 | 10.0 | 0.00 | 0.00 | 0.00 | 58 | 1016.5 |
| 20260504023115 | 70 | 196 | 5.0 | 10.0 | 0.00 | 0.00 | 0.00 | 58 | 1016.5 |
| 20260504023015 | 70 | 186 | 4.0 | 10.0 | 0.00 | 0.00 | 0.00 | 58 | 1016.4 |
| 20260504022917 | 70 | 192 | 4.0 | 10.0 | 0.00 | 0.00 | 0.00 | 58 | 1016.5 |
| 20260504022817 | 70 | 168 | 5.0 | 10.0 | 0.00 | 0.00 | 0.00 | 58 | 1016.4 |
| 20260504022715 | 70 | 141 | 4.0 | 10.0 | 0.00 | 0.00 | 0.00 | 58 | 1016.4 |
| 20260504022616 | 70 | 151 | 5.0 | 10.0 | 0.00 | 0.00 | 0.00 | 58 | 1016.4 |
| 20260504022518 | 70 | 144 | 5.0 | 10.0 | 0.00 | 0.00 | 0.00 | 58 | 1016.4 |
| 20260504022417 | 70 | 199 | 5.0 | 10.0 | 0.00 | 0.00 | 0.00 | 58 | 1016.4 |
| 20260504022316 | 70 | 158 | 5.0 | 10.0 | 0.00 | 0.00 | 0.00 | 58 | 1016.4 |
| 20260504022216 | 70 | 148 | 5.0 | 10.0 | 0.00 | 0.00 | 0.00 | 58 | 1016.4 |
| 20260504022116 | 70 | 207 | 4.0 | 10.0 | 0.00 | 0.00 | 0.00 | 58 | 1016.3 |
| 20260504022015 | 70 | 169 | 4.0 | 10.0 | 0.00 | 0.00 | 0.00 | 58 | 1016.2 |
| 20260504021915 | 70 | 199 | 4.0 | 10.0 | 0.00 | 0.00 | 0.00 | 58 | 1016.2 |
| 20260504021817 | 70 | 155 | 5.0 | 15.0 | 0.00 | 0.00 | 0.00 | 58 | 1016.2 |
| 20260504021717 | 70 | 172 | 5.0 | 15.0 | 0.00 | 0.00 | 0.00 | 58 | 1016.2 |
| 20260504021615 | 70 | 165 | 4.0 | 15.0 | 0.00 | 0.00 | 0.00 | 58 | 1016.2 |
| 20260504021516 | 70 | 138 | 4.0 | 15.0 | 0.00 | 0.00 | 0.00 | 57 | 1016.3 |
| 20260504021416 | 70 | 107 | 5.0 | 15.0 | 0.00 | 0.00 | 0.00 | 57 | 1016.2 |
| 20260504021316 | 70 | 140 | 4.0 | 15.0 | 0.00 | 0.00 | 0.00 | 57 | 1016.2 |
| 20260504021217 | 70 | 137 | 3.0 | 15.0 | 0.00 | 0.00 | 0.00 | 57 | 1016.3 |
| 20260504021115 | 70 | 113 | 4.0 | 15.0 | 0.00 | 0.00 | 0.00 | 57 | 1016.3 |
| 20260504021015 | 70 | 168 | 5.0 | 15.0 | 0.00 | 0.00 | 0.00 | 57 | 1016.2 |
| 20260504020914 | 70 | 138 | 6.0 | 15.0 | 0.00 | 0.00 | 0.00 | 57 | 1016.2 |
| 20260504020816 | 70 | 133 | 5.0 | 13.0 | 0.00 | 0.00 | 0.00 | 57 | 1016.2 |
| 20260504020715 | 70 | 199 | 4.0 | 13.0 | 0.00 | 0.00 | 0.00 | 57 | 1016.2 |
| 20260504020615 | 70 | 148 | 5.0 | 13.0 | 0.00 | 0.00 | 0.00 | 56 | 1016.2 |
| 20260504020516 | 71 | 168 | 6.0 | 13.0 | 0.00 | 0.00 | 0.00 | 56 | 1016.2 |
| 20260504020416 | 71 | 124 | 6.0 | 13.0 | 0.00 | 0.00 | 0.00 | 56 | 1016.2 |
| 20260504020315 | 71 | 159 | 5.0 | 13.0 | 0.00 | 0.00 | 0.00 | 56 | 1016.1 |
| 20260504020215 | 71 | 92 | 6.0 | 13.0 | 0.00 | 0.00 | 0.00 | 56 | 1016.1 |
| 20260504020116 | 71 | 180 | 8.0 | 13.0 | 0.00 | 0.00 | 0.00 | 56 | 1016.1 |
| 20260504020017 | 71 | 140 | 7.0 | 13.0 | 0.00 | 0.00 | 0.00 | 56 | 1016.1 |
| 20260504015914 | 70 | 155 | 5.0 | 10.0 | 0.00 | 0.00 | 0.00 | 56 | 1016.1 |
| 20260504015814 | 71 | 157 | 5.0 | 9.0 | 0.00 | 0.00 | 0.00 | 56 | 1016.1 |
| 20260504015711 | 70 | 124 | 4.0 | 9.0 | 0.00 | 0.00 | 0.00 | 56 | 1016.1 |
| 20260504015609 | 71 | 161 | 3.0 | 9.0 | 0.00 | 0.00 | 0.00 | 57 | 1016.1 |
| 20260504015509 | 70 | 197 | 4.0 | 9.0 | 0.00 | 0.00 | 0.00 | 57 | 1016.2 |
| 20260504015407 | 71 | 144 | 4.0 | 9.0 | 0.00 | 0.00 | 0.00 | 56 | 1016.2 |
| 20260504015308 | 71 | 162 | 4.0 | 9.0 | 0.00 | 0.00 | 0.00 | 56 | 1016.1 |
| 20260504015206 | 71 | 130 | 3.0 | 9.0 | 0.00 | 0.00 | 0.00 | 56 | 1016.1 |
| 20260504015105 | 71 | 141 | 3.0 | 9.0 | 0.00 | 0.00 | 0.00 | 56 | 1016.2 |
| 20260504015004 | 71 | 175 | 3.0 | 9.0 | 0.00 | 0.00 | 0.00 | 56 | 1016.1 |
| 20260504014903 | 71 | 164 | 3.0 | 9.0 | 0.00 | 0.00 | 0.00 | 56 | 1016.2 |
| 20260504014802 | 71 | 130 | 4.0 | 7.0 | 0.00 | 0.00 | 0.00 | 56 | 1016.2 |
| 20260504014702 | 71 | 149 | 4.0 | 7.0 | 0.00 | 0.00 | 0.00 | 56 | 1016.1 |
| 20260504014603 | 71 | 157 | 3.0 | 9.0 | 0.00 | 0.00 | 0.00 | 56 | 1016.1 |
| 20260504014503 | 71 | 138 | 3.0 | 9.0 | 0.00 | 0.00 | 0.00 | 56 | 1016.1 |
| 20260504014402 | 71 | 159 | 3.0 | 9.0 | 0.00 | 0.00 | 0.00 | 56 | 1016.2 |
| 20260504014301 | 71 | 158 | 3.0 | 9.0 | 0.00 | 0.00 | 0.00 | 56 | 1016.1 |
| 20260504014203 | 71 | 176 | 3.0 | 9.0 | 0.00 | 0.00 | 0.00 | 55 | 1016.1 |
| 20260504014102 | 71 | 113 | 3.0 | 9.0 | 0.00 | 0.00 | 0.00 | 55 | 1016.1 |
| 20260504014002 | 71 | 192 | 4.0 | 9.0 | 0.00 | 0.00 | 0.00 | 55 | 1016.1 |
| 20260504013903 | 71 | 158 | 4.0 | 9.0 | 0.00 | 0.00 | 0.00 | 55 | 1016.1 |
| 20260504013802 | 71 | 140 | 4.0 | 9.0 | 0.00 | 0.00 | 0.00 | 55 | 1016.1 |
| 20260504013702 | 71 | 155 | 5.0 | 9.0 | 0.00 | 0.00 | 0.00 | 55 | 1016.0 |
| 20260504013602 | 71 | 173 | 5.0 | 9.0 | 0.00 | 0.00 | 0.00 | 55 | 1015.9 |
| 20260504013503 | 71 | 152 | 3.0 | 9.0 | 0.00 | 0.00 | 0.00 | 56 | 1016.0 |
| 20260504013403 | 71 | 142 | 2.0 | 9.0 | 0.00 | 0.00 | 0.00 | 55 | 1015.9 |
| 20260504013302 | 71 | 118 | 3.0 | 9.0 | 0.00 | 0.00 | 0.00 | 55 | 1015.9 |
| 20260504013202 | 71 | 141 | 3.0 | 9.0 | 0.00 | 0.00 | 0.00 | 55 | 1015.9 |
| 20260504013103 | 71 | 227 | 4.0 | 9.0 | 0.00 | 0.00 | 0.00 | 55 | 1015.8 |
| 20260504013002 | 71 | 147 | 4.0 | 9.0 | 0.00 | 0.00 | 0.00 | 55 | 1015.9 |
| 20260504012903 | 72 | 137 | 3.0 | 9.0 | 0.00 | 0.00 | 0.00 | 54 | 1015.9 |
| 20260504012802 | 72 | 148 | 4.0 | 9.0 | 0.00 | 0.00 | 0.00 | 54 | 1015.9 |
| 20260504012702 | 72 | 147 | 4.0 | 9.0 | 0.00 | 0.00 | 0.00 | 54 | 1015.8 |
| 20260504012603 | 72 | 172 | 3.0 | 9.0 | 0.00 | 0.00 | 0.00 | 54 | 1015.9 |
| 20260504012504 | 72 | 189 | 4.0 | 10.0 | 0.00 | 0.00 | 0.00 | 54 | 1015.8 |
| 20260504012402 | 72 | 195 | 4.0 | 10.0 | 0.00 | 0.00 | 0.00 | 54 | 1015.9 |
| 20260504012304 | 72 | 134 | 5.0 | 10.0 | 0.00 | 0.00 | 0.00 | 54 | 1015.8 |
| 20260504012204 | 72 | 168 | 5.0 | 10.0 | 0.00 | 0.00 | 0.00 | 54 | 1015.9 |
| 20260504012103 | 72 | 130 | 4.0 | 10.0 | 0.00 | 0.00 | 0.00 | 54 | 1015.9 |
| 20260504012004 | 72 | 169 | 4.0 | 10.0 | 0.00 | 0.00 | 0.00 | 54 | 1015.9 |
| 20260504011903 | 72 | 175 | 4.0 | 10.0 | 0.00 | 0.00 | 0.00 | 54 | 1015.8 |
| 20260504011803 | 72 | 83 | 3.0 | 11.0 | 0.00 | 0.00 | 0.00 | 54 | 1015.9 |
| 20260504011702 | 72 | 148 | 4.0 | 11.0 | 0.00 | 0.00 | 0.00 | 54 | 1015.8 |
| 20260504011603 | 72 | 159 | 4.0 | 11.0 | 0.00 | 0.00 | 0.00 | 54 | 1015.8 |
| 20260504011504 | 72 | 176 | 4.0 | 11.0 | 0.00 | 0.00 | 0.00 | 54 | 1015.9 |
| 20260504011402 | 72 | 206 | 3.0 | 11.0 | 0.00 | 0.00 | 0.00 | 54 | 1015.9 |
| 20260504011303 | 72 | 124 | 3.0 | 11.0 | 0.00 | 0.00 | 0.00 | 54 | 1015.9 |
| 20260504011203 | 72 | 172 | 3.0 | 11.0 | 0.00 | 0.00 | 0.00 | 54 | 1015.9 |
| 20260504011102 | 72 | 175 | 3.0 | 11.0 | 0.00 | 0.00 | 0.00 | 54 | 1015.9 |
| 20260504011003 | 72 | 199 | 5.0 | 11.0 | 0.00 | 0.00 | 0.00 | 54 | 1015.9 |
| 20260504010903 | 72 | 164 | 5.0 | 11.0 | 0.00 | 0.00 | 0.00 | 53 | 1015.8 |
| 20260504010804 | 72 | 171 | 4.0 | 10.0 | 0.00 | 0.00 | 0.00 | 54 | 1015.8 |
| 20260504010702 | 72 | 172 | 4.0 | 10.0 | 0.00 | 0.00 | 0.00 | 54 | 1015.8 |
| 20260504010602 | 72 | 152 | 3.0 | 10.0 | 0.00 | 0.00 | 0.00 | 53 | 1015.8 |
| 20260504010503 | 72 | 166 | 4.0 | 10.0 | 0.00 | 0.00 | 0.00 | 53 | 1015.7 |
| 20260504010402 | 72 | 147 | 4.0 | 10.0 | 0.00 | 0.00 | 0.00 | 53 | 1015.8 |
| 20260504010302 | 72 | 161 | 4.0 | 10.0 | 0.00 | 0.00 | 0.00 | 53 | 1015.8 |
| 20260504010202 | 72 | 166 | 3.0 | 10.0 | 0.00 | 0.00 | 0.00 | 53 | 1015.8 |
| 20260504010003 | 72 | 117 | 5.0 | 10.0 | 0.00 | 0.00 | 0.00 | 52 | 1015.8 |
| 20260504005904 | 72 | 145 | 4.0 | 10.0 | 0.00 | 0.00 | 0.00 | 53 | 1015.8 |
| 20260504005803 | 73 | 206 | 2.0 | 7.0 | 0.00 | 0.00 | 0.00 | 52 | 1015.9 |
| 20260504005702 | 73 | 107 | 2.0 | 7.0 | 0.00 | 0.00 | 0.00 | 52 | 1015.8 |
| 20260504005602 | 73 | 158 | 3.0 | 7.0 | 0.00 | 0.00 | 0.00 | 52 | 1015.9 |
| 20260504005504 | 73 | 141 | 3.0 | 7.0 | 0.00 | 0.00 | 0.00 | 52 | 1015.8 |
| 20260504005403 | 73 | 68 | 2.0 | 12.0 | 0.00 | 0.00 | 0.00 | 51 | 1015.8 |
| 20260504005304 | 73 | 121 | 2.0 | 12.0 | 0.00 | 0.00 | 0.00 | 52 | 1015.8 |
| 20260504005202 | 73 | 92 | 2.0 | 12.0 | 0.00 | 0.00 | 0.00 | 52 | 1015.9 |
| 20260504005104 | 73 | 134 | 4.0 | 12.0 | 0.00 | 0.00 | 0.00 | 51 | 1015.8 |
| 20260504005002 | 73 | 99 | 5.0 | 12.0 | 0.00 | 0.00 | 0.00 | 51 | 1015.8 |
| 20260504004903 | 73 | 76 | 5.0 | 12.0 | 0.00 | 0.00 | 0.00 | 51 | 1015.8 |
| 20260504004803 | 73 | 140 | 4.0 | 12.0 | 0.00 | 0.00 | 0.00 | 51 | 1015.7 |
| 20260504004703 | 73 | 113 | 4.0 | 12.0 | 0.00 | 0.00 | 0.00 | 51 | 1015.7 |
| 20260504004603 | 74 | 131 | 6.0 | 12.0 | 0.00 | 0.00 | 0.00 | 51 | 1015.8 |
| 20260504004502 | 74 | 117 | 9.0 | 12.0 | 0.00 | 0.00 | 0.00 | 51 | 1015.8 |
| 20260504004403 | 74 | 111 | 8.0 | 12.0 | 0.00 | 0.00 | 0.00 | 51 | 1015.8 |
| 20260504004303 | 74 | 110 | 6.0 | 12.0 | 0.00 | 0.00 | 0.00 | 51 | 1015.8 |
| 20260504004202 | 74 | 123 | 6.0 | 10.0 | 0.00 | 0.00 | 0.00 | 51 | 1015.8 |
| 20260504004103 | 74 | 39 | 5.0 | 10.0 | 0.00 | 0.00 | 0.00 | 51 | 1015.9 |
| 20260504004003 | 74 | 35 | 5.0 | 10.0 | 0.00 | 0.00 | 0.00 | 51 | 1015.8 |
| 20260504003902 | 74 | 45 | 6.0 | 11.0 | 0.00 | 0.00 | 0.00 | 51 | 1015.9 |
| 20260504003803 | 74 | 55 | 7.0 | 11.0 | 0.00 | 0.00 | 0.00 | 51 | 1015.9 |
| 20260504003703 | 74 | 58 | 7.0 | 11.0 | 0.00 | 0.00 | 0.00 | 51 | 1015.9 |
| 20260504003603 | 74 | 59 | 6.0 | 11.0 | 0.00 | 0.00 | 0.00 | 50 | 1015.9 |
| 20260504003503 | 74 | 66 | 6.0 | 11.0 | 0.00 | 0.00 | 0.00 | 50 | 1015.9 |
| 20260504003403 | 74 | 100 | 7.0 | 11.0 | 0.00 | 0.00 | 0.00 | 50 | 1015.9 |
| 20260504003302 | 74 | 72 | 7.0 | 11.0 | 0.00 | 0.00 | 0.00 | 50 | 1015.9 |
| 20260504003203 | 74 | 55 | 7.0 | 11.0 | 0.00 | 0.00 | 0.00 | 50 | 1015.9 |
| 20260504003103 | 74 | 76 | 7.0 | 11.0 | 0.00 | 0.00 | 0.00 | 50 | 1015.9 |
| 20260504003003 | 74 | 71 | 7.0 | 11.0 | 0.00 | 0.00 | 0.00 | 50 | 1015.9 |
| 20260504002902 | 74 | 73 | 7.0 | 11.0 | 0.00 | 0.00 | 0.00 | 50 | 1015.8 |
| 20260504002802 | 74 | 75 | 6.0 | 11.0 | 0.00 | 0.00 | 0.00 | 50 | 1015.9 |
| 20260504002704 | 74 | 80 | 6.0 | 11.0 | 0.00 | 0.00 | 0.00 | 50 | 1015.9 |
| 20260504002602 | 74 | 73 | 6.0 | 11.0 | 0.00 | 0.00 | 0.00 | 50 | 1015.8 |
| 20260504002503 | 74 | 47 | 4.0 | 11.0 | 0.00 | 0.00 | 0.00 | 49 | 1015.8 |
| 20260504002403 | 75 | 48 | 5.0 | 11.0 | 0.00 | 0.00 | 0.00 | 49 | 1015.7 |
| 20260504002303 | 75 | 79 | 7.0 | 11.0 | 0.00 | 0.00 | 0.00 | 49 | 1015.7 |
| 20260504002203 | 75 | 59 | 6.0 | 11.0 | 0.00 | 0.00 | 0.00 | 49 | 1015.7 |
| 20260504002103 | 75 | 55 | 6.0 | 11.0 | 0.00 | 0.00 | 0.00 | 49 | 1015.7 |
| 20260504002002 | 75 | 133 | 8.0 | 12.0 | 0.00 | 0.00 | 0.00 | 48 | 1015.7 |
| 20260504001902 | 75 | 103 | 8.0 | 13.0 | 0.00 | 0.00 | 0.00 | 48 | 1015.8 |
| 20260504001801 | 75 | 102 | 8.0 | 13.0 | 0.00 | 0.00 | 0.00 | 48 | 1015.7 |
| 20260504001703 | 75 | 97 | 7.0 | 13.0 | 0.00 | 0.00 | 0.00 | 48 | 1015.8 |
| 20260504001602 | 75 | 113 | 7.0 | 13.0 | 0.00 | 0.00 | 0.00 | 48 | 1015.8 |
| 20260504001503 | 75 | 97 | 7.0 | 13.0 | 0.00 | 0.00 | 0.00 | 48 | 1015.9 |
| 20260504001403 | 75 | 117 | 7.0 | 13.0 | 0.00 | 0.00 | 0.00 | 48 | 1015.9 |
| 20260504001303 | 75 | 111 | 7.0 | 13.0 | 0.00 | 0.00 | 0.00 | 48 | 1015.8 |
| 20260504001203 | 75 | 97 | 8.0 | 13.0 | 0.00 | 0.00 | 0.00 | 48 | 1015.8 |
| 20260504001102 | 75 | 106 | 9.0 | 14.0 | 0.00 | 0.00 | 0.00 | 47 | 1015.8 |
| 20260504001004 | 76 | 93 | 9.0 | 14.0 | 0.00 | 0.00 | 0.00 | 47 | 1015.7 |